CW1648 Weather Reports


Display with metric or nautical units.
time (UTC)temp
F
wind
direction
speed
MPH
gust
MPH
rain 1hr
in
rain 24hr
in
rain mn
in
humidity
%
barometer
mb
20200329150347 47 66 6.0 12.0 0.00 0.57 0.00 96 1012.8
20200329150318 47 101 5.0 12.0 0.00 0.57 0.00 96 1042.8
20200329150218 47 51 5.0 12.0 0.00 0.58 0.00 96 1042.9
20200329150118 47 103 5.0 10.0 0.00 0.58 0.00 96 1042.9
20200329150019 47 36 5.0 10.0 0.00 0.58 0.00 96 1043.0
20200329145926 47 78 5.0 12.0 0.00 0.58 0.00 96 1043.0
20200329145918 47 67 5.0 12.0 0.00 0.58 0.00 96 1043.0
20200329145847 47 70 6.0 12.0 0.00 0.58 0.00 96 1013.1
20200329145819 47 65 5.0 12.0 0.00 0.59 0.00 96 1043.1
20200329145719 47 75 5.0 12.0 0.00 0.59 0.00 96 1043.1
20200329145619 46 64 5.0 12.0 0.00 0.59 0.00 96 1043.1
20200329145518 46 28 5.0 12.0 0.00 0.59 0.00 96 1043.2
20200329145426 46 44 5.0 12.0 0.00 0.59 0.00 96 1043.2
20200329145419 46 36 5.0 12.0 0.00 0.59 0.00 96 1043.2
20200329145347 46 68 6.0 12.0 0.00 0.59 0.00 96 1013.2
20200329145319 46 22 5.0 12.0 0.00 0.59 0.00 96 1043.2
20200329145219 46 84 4.0 12.0 0.00 0.59 0.00 96 1043.3
20200329145117 47 84 4.0 12.0 0.00 0.59 0.00 96 1043.3
20200329145018 47 22 4.0 12.0 0.00 0.59 0.00 96 1043.4
20200329144925 47 25 3.0 10.0 0.00 0.59 0.00 96 1043.4
20200329144919 47 73 3.0 10.0 0.00 0.59 0.00 96 1043.4
20200329144847 47 60 7.0 10.0 0.00 0.59 0.00 96 1013.5
20200329144817 47 49 3.0 9.0 0.00 0.59 0.00 96 1043.5
20200329144719 47 67 3.0 7.0 0.00 0.59 0.00 96 1043.7
20200329144617 47 67 3.0 7.0 0.00 0.59 0.00 96 1043.8
20200329144514 47 80 3.0 7.0 0.00 0.60 0.00 96 1043.9
20200329144426 47 80 3.0 7.0 0.00 0.60 0.00 96 1044.0
20200329144415 47 49 3.0 7.0 0.00 0.60 0.00 96 1044.0
20200329144347 47 40 3.0 7.0 0.00 0.60 0.00 96 1014.0
20200329144315 47 40 3.0 7.0 0.00 0.60 0.00 96 1044.0
20200329144215 47 32 3.0 7.0 0.00 0.60 0.00 96 1044.1
20200329144114 47 51 3.0 7.0 0.00 0.60 0.00 96 1044.1
20200329144014 47 36 3.0 6.0 0.00 0.60 0.00 96 1044.1
20200329143925 47 39 3.0 6.0 0.00 0.60 0.00 96 1044.1
20200329143916 47 46 3.0 6.0 0.00 0.60 0.00 96 1044.1
20200329143847 47 43 5.0 6.0 0.00 0.60 0.00 96 1014.1
20200329143814 47 46 3.0 6.0 0.00 0.61 0.00 96 1044.1
20200329143711 47 52 3.0 6.0 0.00 0.61 0.00 96 1044.2
20200329143611 47 34 2.0 5.0 0.00 0.61 0.00 96 1044.2
20200329143511 47 55 2.0 5.0 0.00 0.61 0.00 96 1044.2
20200329143413 47 55 2.0 5.0 0.00 0.61 0.00 96 1044.2
20200329143347 47 57 2.0 5.0 0.00 0.61 0.00 96 1014.2
20200329143311 47 57 2.0 5.0 0.00 0.62 0.00 96 1044.2
20200329143211 47 39 2.0 5.0 0.00 0.62 0.00 96 1044.3
20200329143110 47 64 2.0 5.0 0.00 0.63 0.00 96 1044.3
20200329143009 47 28 2.0 5.0 0.00 0.64 0.00 96 1044.2
20200329142925 47 40 2.0 5.0 0.00 0.64 0.00 96 1044.3
20200329142910 47 45 2.0 5.0 0.00 0.64 0.00 96 1044.3
20200329142847 47 37 3.0 5.0 0.00 0.64 0.00 96 1014.3
20200329142811 47 30 2.0 5.0 0.00 0.64 0.00 96 1044.3
20200329142709 47 51 2.0 5.0 0.00 0.65 0.00 96 1044.4
20200329142608 47 50 2.0 5.0 0.00 0.65 0.00 96 1044.5
20200329142506 47 64 2.0 5.0 0.00 0.65 0.00 96 1044.5
20200329142406 47 64 3.0 5.0 0.00 0.65 0.00 96 1044.5
20200329142347 46 64 1.0 5.0 0.00 0.65 0.00 96 1014.5
20200329142305 46 64 3.0 5.0 0.00 0.65 0.00 96 1044.5
20200329142207 46 65 3.0 5.0 0.00 0.65 0.00 96 1044.6
20200329142105 46 57 3.0 5.0 0.00 0.65 0.00 96 1044.5
20200329142005 46 45 3.0 6.0 0.00 0.65 0.00 96 1044.6
20200329141922 46 44 3.0 7.0 0.00 0.65 0.00 96 1044.6
20200329141906 46 44 3.0 7.0 0.00 0.65 0.00 96 1044.6
20200329141847 46 39 4.0 7.0 0.00 0.65 0.00 96 1014.6
20200329141806 46 51 3.0 7.0 0.00 0.65 0.00 96 1044.6
20200329141705 46 53 3.0 7.0 0.00 0.65 0.00 96 1044.6
20200329141603 46 46 3.0 10.0 0.00 0.65 0.00 96 1044.6
20200329141503 46 46 4.0 10.0 0.00 0.65 0.00 96 1044.6
20200329141422 46 37 3.0 10.0 0.00 0.65 0.00 96 1044.6
20200329141403 46 42 3.0 10.0 0.00 0.65 0.00 96 1044.6
20200329141347 46 5 3.0 10.0 0.00 0.65 0.00 96 1014.7
20200329141303 46 5 3.0 10.0 0.00 0.65 0.00 96 1044.7
20200329141204 46 0 3.0 10.0 0.00 0.65 0.00 96 1044.6
20200329141104 46 32 3.0 10.0 0.00 0.65 0.00 96 1044.6
20200329141004 46 55 3.0 10.0 0.00 0.65 0.00 96 1044.5
20200329140923 46 38 3.0 10.0 0.00 0.65 0.00 96 1044.4
20200329140904 46 39 3.0 10.0 0.00 0.65 0.00 96 1044.4
20200329140847 46 39 1.0 10.0 0.00 0.65 0.00 96 1014.3
20200329140804 46 36 3.0 10.0 0.00 0.65 0.00 96 1044.3
20200329140704 46 43 3.0 10.0 0.00 0.65 0.00 96 1044.3
20200329140604 46 43 3.0 6.0 0.00 0.65 0.00 96 1044.2
20200329140504 46 22 3.0 6.0 0.00 0.65 0.00 96 1044.2
20200329140423 46 57 3.0 6.0 0.00 0.65 0.00 96 1044.2
20200329140404 46 52 3.0 6.0 0.00 0.65 0.00 96 1044.2
20200329140347 46 56 2.0 6.0 0.00 0.65 0.00 96 1014.2
20200329140303 46 56 3.0 6.0 0.00 0.65 0.00 96 1044.2
20200329140201 46 56 3.0 6.0 0.00 0.65 0.00 96 1044.1
20200329140101 46 19 3.0 6.0 0.00 0.65 0.00 96 1044.1
20200329140001 46 19 3.0 6.0 0.00 0.65 0.00 96 1044.1
20200329135901 46 19 3.0 6.0 0.00 0.65 0.00 96 1044.1
20200329135847 46 32 4.0 6.0 0.00 0.65 0.00 96 1014.1
20200329135759 46 40 3.0 6.0 0.00 0.65 0.00 96 1044.1
20200329135700 46 47 3.0 6.0 0.00 0.65 0.00 96 1044.0
20200329135600 46 65 3.0 6.0 0.00 0.65 0.00 96 1044.1
20200329135501 46 28 3.0 6.0 0.00 0.65 0.00 96 1044.1
20200329135421 46 28 3.0 6.0 0.00 0.65 0.00 96 1044.2
20200329135400 46 28 3.0 6.0 0.00 0.65 0.00 96 1044.2
20200329135347 46 28 2.0 6.0 0.00 0.65 0.00 96 1014.2
20200329135259 46 28 3.0 6.0 0.00 0.65 0.00 96 1044.2
20200329135200 46 49 3.0 6.0 0.00 0.65 0.00 96 1044.1
20200329135100 46 68 3.0 6.0 0.00 0.65 0.00 96 1044.1
20200329134959 46 51 3.0 6.0 0.00 0.65 0.00 96 1044.2
20200329134922 46 44 3.0 6.0 0.00 0.65 0.00 96 1044.2
20200329134900 46 26 3.0 6.0 0.00 0.65 0.00 96 1044.2
20200329134847 46 350 3.0 6.0 0.00 0.65 0.00 96 1014.1
20200329134759 46 62 3.0 6.0 0.00 0.65 0.00 96 1044.1
20200329134700 46 49 3.0 6.0 0.00 0.65 0.00 96 1044.1
20200329134559 46 61 3.0 7.0 0.00 0.65 0.00 96 1044.1
20200329134459 46 46 3.0 7.0 0.00 0.65 0.00 96 1044.1
20200329134421 46 59 3.0 7.0 0.00 0.65 0.00 96 1044.2
20200329134359 46 37 3.0 7.0 0.00 0.65 0.00 96 1044.2
20200329134347 46 36 4.0 7.0 0.00 0.65 0.00 96 1014.3
20200329134258 46 35 3.0 7.0 0.00 0.65 0.00 96 1044.3
20200329134159 46 351 3.0 7.0 0.00 0.65 0.00 96 1044.4
20200329134059 46 5 3.0 7.0 0.00 0.65 0.00 96 1044.4
20200329133921 46 355 3.0 7.0 0.00 0.65 0.00 95 1044.3
20200329133900 46 13 3.0 7.0 0.00 0.65 0.00 95 1044.3
20200329133847 46 5 5.0 7.0 0.00 0.65 0.00 95 1014.2
20200329133800 46 5 3.0 7.0 0.00 0.65 0.00 95 1044.2
20200329133659 46 9 3.0 7.0 0.00 0.66 0.00 95 1044.1
20200329133600 46 61 3.0 6.0 0.00 0.66 0.00 95 1044.1
20200329133500 46 38 3.0 6.0 0.00 0.66 0.00 96 1044.1
20200329133420 46 43 3.0 6.0 0.00 0.66 0.00 95 1044.2
20200329133359 46 46 3.0 6.0 0.00 0.66 0.00 95 1044.2
20200329133347 46 57 2.0 6.0 0.00 0.66 0.00 95 1014.2
20200329133300 46 57 3.0 6.0 0.00 0.66 0.00 95 1044.2
20200329133200 46 57 3.0 6.0 0.00 0.66 0.00 95 1044.2
20200329133100 46 44 3.0 6.0 0.00 0.66 0.00 95 1044.2
20200329133001 46 60 3.0 6.0 0.00 0.67 0.00 95 1044.3
20200329132921 46 37 3.0 6.0 0.00 0.67 0.00 96 1044.3
20200329132900 46 24 3.0 6.0 0.00 0.67 0.00 96 1044.3
20200329132847 46 5 3.0 6.0 0.00 0.67 0.00 95 1014.3
20200329132759 46 355 3.0 6.0 0.00 0.67 0.00 95 1044.3
20200329132701 46 26 3.0 6.0 0.00 0.67 0.00 95 1044.2
20200329132559 46 19 3.0 6.0 0.00 0.68 0.00 95 1044.1
20200329132459 46 51 3.0 6.0 0.00 0.68 0.00 95 1044.1
20200329132421 46 57 3.0 6.0 0.00 0.68 0.00 95 1044.2
20200329132400 46 57 3.0 6.0 0.00 0.68 0.00 95 1044.2
20200329132347 46 58 3.0 6.0 0.00 0.68 0.00 95 1014.2
20200329132259 46 60 3.0 6.0 0.00 0.69 0.00 95 1044.2
20200329132159 46 60 3.0 6.0 0.00 0.69 0.00 95 1044.3
20200329132100 46 44 3.0 6.0 0.00 0.69 0.00 96 1044.2
20200329132000 46 61 3.0 6.0 0.00 0.70 0.00 95 1044.3
20200329131921 46 63 3.0 6.0 0.00 0.70 0.00 95 1044.3
20200329131859 46 63 3.0 6.0 0.00 0.71 0.00 95 1044.3
20200329131847 46 63 3.0 6.0 0.00 0.70 0.00 95 1014.3
20200329131759 46 65 3.0 6.0 0.00 0.71 0.00 95 1044.3
20200329131700 46 65 3.0 6.0 0.00 0.72 0.00 95 1044.5
20200329131559 46 65 3.0 6.0 0.00 0.72 0.00 95 1044.4
20200329131459 46 25 3.0 6.0 0.00 0.73 0.00 95 1044.4
20200329131421 46 51 3.0 5.0 0.00 0.73 0.00 95 1044.3
20200329131400 46 74 3.0 5.0 0.00 0.73 0.00 95 1044.3
20200329131347 46 46 4.0 5.0 0.00 0.73 0.00 95 1014.3
20200329131300 46 46 3.0 5.0 0.00 0.74 0.00 95 1044.3
20200329131158 46 50 3.0 5.0 0.00 0.74 0.00 95 1044.3
20200329131055 46 49 3.0 4.0 0.00 0.75 0.00 95 1044.4
20200329130955 46 39 3.0 4.0 0.00 0.75 0.00 95 1044.4
20200329130920 46 38 3.0 5.0 0.00 0.75 0.00 95 1044.5
20200329130855 46 38 3.0 5.0 0.00 0.76 0.00 95 1044.5
20200329130847 46 34 4.0 5.0 0.00 0.76 0.00 95 1014.4
20200329130756 46 35 3.0 6.0 0.00 0.76 0.00 95 1044.4
20200329130655 46 35 3.0 6.0 0.00 0.77 0.00 95 1044.4
20200329130555 46 44 3.0 8.0 0.00 0.77 0.00 95 1044.3
20200329130453 46 97 3.0 8.0 0.00 0.78 0.00 95 1044.3
20200329130419 46 80 3.0 8.0 0.00 0.78 0.00 95 1044.2
20200329130354 46 69 3.0 8.0 0.00 0.78 0.00 95 1044.2
20200329130347 46 51 3.0 8.0 0.00 0.78 0.00 95 1014.2
20200329130254 46 72 4.0 9.0 0.00 0.78 0.00 95 1044.2
20200329130154 46 64 4.0 9.0 0.00 0.79 0.00 95 1044.2
20200329130054 46 59 4.0 9.0 0.00 0.79 0.00 95 1044.2
20200329125951 46 82 4.0 9.0 0.00 0.80 0.00 95 1044.3
20200329125918 46 68 4.0 9.0 0.00 0.80 0.00 95 1044.3
20200329125851 46 52 4.0 9.0 0.00 0.80 0.00 95 1044.3
20200329125847 46 50 4.0 9.0 0.00 0.80 0.00 95 1014.3
20200329125752 46 66 4.0 9.0 0.00 0.80 0.00 95 1044.3
20200329125652 46 84 4.0 9.0 0.00 0.81 0.00 95 1044.3
20200329125552 46 61 4.0 9.0 0.00 0.81 0.00 95 1044.4
20200329125452 46 54 3.0 9.0 0.00 0.81 0.00 95 1044.4
20200329125417 46 28 3.0 9.0 0.00 0.81 0.00 95 1044.5
20200329125351 46 26 3.0 9.0 0.00 0.81 0.00 95 1044.5
20200329125347 46 63 5.0 9.0 0.00 0.81 0.00 95 1014.5
20200329125252 46 35 3.0 9.0 0.00 0.82 0.00 95 1044.5
20200329125152 46 19 4.0 10.0 0.00 0.82 0.00 95 1044.4
20200329125049 46 37 4.0 12.0 0.00 0.82 0.00 96 1044.4
20200329124948 46 355 4.0 12.0 0.00 0.83 0.00 95 1044.4
20200329124914 46 335 4.0 12.0 0.00 0.83 0.00 95 1044.3
20200329124848 46 22 4.0 12.0 0.00 0.83 0.00 95 1044.3
20200329124750 46 342 4.0 12.0 0.00 0.83 0.00 95 1044.2
20200329124648 46 46 4.0 12.0 0.00 0.83 0.00 95 1044.0
20200329124548 46 46 4.0 12.0 0.00 0.83 0.00 95 1043.9
20200329124450 46 61 4.0 12.0 0.00 0.83 0.00 95 1043.9
20200329124413 46 33 4.0 12.0 0.00 0.83 0.00 95 1043.8
20200329124348 46 27 4.0 12.0 0.00 0.83 0.00 95 1043.8
20200329124248 46 17 4.0 12.0 0.00 0.83 0.00 95 1043.8
20200329124148 46 46 4.0 12.0 0.00 0.83 0.00 95 1043.7
20200329124048 46 52 3.0 8.0 0.00 0.83 0.00 95 1043.7
20200329123948 46 37 3.0 8.0 0.00 0.83 0.00 95 1043.7
20200329123914 46 43 3.0 7.0 0.00 0.83 0.00 95 1043.8
20200329123849 46 49 3.0 7.0 0.00 0.83 0.00 95 1043.8
20200329123847 46 36 4.0 10.0 0.00 0.83 0.00 95 1013.7
20200329123749 46 51 4.0 10.0 0.00 0.83 0.00 95 1043.7
20200329123647 46 44 4.0 12.0 0.00 0.83 0.00 95 1043.7
20200329123547 46 44 5.0 12.0 0.00 0.83 0.00 95 1043.6
20200329123447 46 53 5.0 12.0 0.00 0.84 0.00 95 1043.6
20200329123412 46 62 5.0 12.0 0.00 0.84 0.00 95 1043.5
20200329123347 46 82 5.0 12.0 0.00 0.84 0.00 95 1043.5
20200329123245 46 85 5.0 12.0 0.00 0.84 0.00 95 1043.6
20200329123145 46 58 5.0 12.0 0.00 0.84 0.00 95 1043.6
20200329123045 46 40 5.0 12.0 0.00 0.84 0.00 95 1043.7
20200329122945 46 44 5.0 12.0 0.00 0.84 0.00 95 1043.8
20200329122911 46 74 5.0 12.0 0.00 0.84 0.00 95 1043.8
20200329122847 46 89 9.0 12.0 0.00 0.84 0.00 95 1013.8
20200329122844 46 61 5.0 12.0 0.00 0.84 0.00 95 1043.8
20200329122744 46 78 5.0 12.0 0.00 0.84 0.00 95 1043.8
20200329122645 46 90 5.0 10.0 0.00 0.84 0.00 95 1043.8
20200329122545 46 46 5.0 10.0 0.00 0.84 0.00 95 1043.7
20200329122444 46 46 5.0 9.0 0.00 0.84 0.00 95 1043.8
20200329122411 46 45 5.0 9.0 0.00 0.84 0.00 95 1043.8
20200329122347 46 27 3.0 9.0 0.00 0.84 0.00 95 1013.8
20200329122345 46 57 5.0 9.0 0.00 0.84 0.00 95 1043.8
20200329122245 46 38 5.0 9.0 0.00 0.84 0.00 95 1043.8
20200329122146 46 73 5.0 9.0 0.00 0.84 0.00 95 1043.8
20200329122044 46 85 5.0 9.0 0.00 0.84 0.00 95 1043.7
20200329121945 46 49 4.0 9.0 0.00 0.84 0.00 95 1043.6
20200329121912 46 103 4.0 9.0 0.00 0.84 0.00 95 1043.6
20200329121847 46 28 5.0 9.0 0.00 0.84 0.00 95 1013.6
20200329121844 46 54 4.0 9.0 0.00 0.84 0.00 95 1043.6
20200329121744 46 54 4.0 9.0 0.00 0.84 0.00 95 1043.6
20200329121644 46 86 3.0 9.0 0.00 0.84 0.00 95 1043.6
20200329121545 46 77 3.0 9.0 0.00 0.84 0.00 95 1043.7
20200329121444 46 80 3.0 9.0 0.00 0.84 0.00 95 1043.7
20200329121411 46 51 3.0 9.0 0.00 0.84 0.00 96 1043.7
20200329121347 46 28 6.0 9.0 0.00 0.84 0.00 96 1013.8
20200329121344 46 51 3.0 9.0 0.00 0.84 0.00 96 1043.7
20200329121244 46 65 3.0 9.0 0.00 0.84 0.00 96 1043.8
20200329121145 46 42 3.0 8.0 0.00 0.84 0.00 96 1043.8
20200329121044 46 72 2.0 6.0 0.00 0.84 0.00 96 1043.8
20200329120945 46 59 3.0 5.0 0.00 0.84 0.00 96 1043.8
20200329120910 46 58 3.0 11.0 0.00 0.84 0.00 96 1043.7
20200329120847 46 59 0.0 11.0 0.00 0.84 0.00 96 1013.6
20200329120845 46 59 3.0 11.0 0.00 0.84 0.00 96 1043.7
20200329120742 46 44 3.0 11.0 0.00 0.84 0.00 96 1043.6
20200329120642 46 54 4.0 11.0 0.00 0.84 0.00 96 1043.6
20200329120542 46 34 4.0 11.0 0.00 0.84 0.00 96 1043.5
20200329120442 46 42 4.0 11.0 0.00 0.84 0.00 96 1043.5
20200329120411 46 40 4.0 11.0 0.00 0.84 0.00 96 1043.5
20200329120347 46 49 4.0 11.0 0.00 0.84 0.00 96 1013.4
20200329120341 46 37 4.0 11.0 0.00 0.84 0.00 96 1043.5
20200329120243 46 58 4.0 11.0 0.00 0.84 0.00 96 1043.4
20200329120143 46 52 4.0 11.0 0.00 0.84 0.00 96 1043.4
20200329120043 46 49 4.0 11.0 0.00 0.84 0.00 96 1043.4
20200329115942 46 56 4.0 11.0 0.00 0.84 0.00 96 1043.4
20200329115908 46 76 4.0 10.0 0.00 0.84 0.00 96 1043.5
20200329115847 46 29 3.0 7.0 0.00 0.84 0.00 96 1013.5
20200329115843 46 66 4.0 8.0 0.00 0.84 0.00 96 1043.5
20200329115741 46 83 4.0 8.0 0.00 0.84 0.00 96 1043.5
20200329115641 46 51 4.0 11.0 0.00 0.84 0.00 96 1043.6
20200329115541 46 53 4.0 13.0 0.00 0.84 0.00 96 1043.5
20200329115440 46 51 5.0 13.0 0.00 0.84 0.00 96 1043.5
20200329115408 46 51 5.0 13.0 0.00 0.84 0.00 96 1043.4
20200329115347 46 42 5.0 13.0 0.00 0.84 0.00 96 1013.4
20200329115342 46 46 5.0 13.0 0.00 0.84 0.00 96 1043.4
20200329115240 46 36 5.0 13.0 0.00 0.84 0.00 96 1043.4
20200329115141 46 48 5.0 13.0 0.00 0.84 0.00 96 1043.5
20200329115042 46 69 5.0 13.0 0.00 0.84 0.00 96 1043.5
20200329114940 46 78 5.0 13.0 0.00 0.84 0.00 96 1043.5
20200329114908 46 65 5.0 13.0 0.00 0.84 0.00 96 1043.5
20200329114847 46 86 7.0 13.0 0.00 0.84 0.00 96 1013.5
20200329114840 46 80 5.0 13.0 0.00 0.84 0.00 96 1043.5
20200329114740 46 80 5.0 13.0 0.00 0.84 0.00 96 1043.5
20200329114640 46 48 4.0 13.0 0.00 0.84 0.00 96 1043.4
20200329114540 46 51 4.0 10.0 0.00 0.84 0.00 96 1043.5
20200329114442 46 92 4.0 9.0 0.00 0.84 0.00 96 1043.4
20200329114408 46 104 3.0 9.0 0.00 0.84 0.00 96 1043.4
20200329114347 46 28 4.0 9.0 0.00 0.84 0.00 96 1013.4
20200329114341 46 33 3.0 9.0 0.00 0.84 0.00 96 1043.4
20200329114240 46 45 3.0 9.0 0.00 0.84 0.00 96 1043.4
20200329114140 46 51 3.0 9.0 0.00 0.84 0.00 96 1043.4
20200329114040 46 42 2.0 9.0 0.00 0.84 0.00 96 1043.4
20200329113940 46 65 2.0 9.0 0.00 0.84 0.00 96 1043.4
20200329113908 46 44 2.0 9.0 0.00 0.84 0.00 96 1043.4
20200329113847 46 67 6.0 9.0 0.00 0.84 0.00 96 1013.4
20200329113840 46 47 2.0 9.0 0.00 0.84 0.00 96 1043.4
20200329113740 46 41 2.0 4.0 0.00 0.84 0.00 96 1043.4
20200329113640 46 19 2.0 6.0 0.00 0.84 0.00 96 1043.3
20200329113540 46 11 2.0 6.0 0.00 0.84 0.00 96 1043.3
20200329113440 46 78 2.0 8.0 0.00 0.84 0.00 96 1043.3
20200329113409 46 78 3.0 8.0 0.00 0.84 0.00 96 1043.2
20200329113347 46 46 0.0 8.0 0.00 0.84 0.00 96 1013.1
20200329113339 46 46 3.0 8.0 0.00 0.84 0.00 96 1043.2
20200329113239 46 48 3.0 8.0 0.00 0.84 0.00 96 1043.1
20200329113139 46 48 3.0 8.0 0.00 0.84 0.00 96 1043.0
20200329113040 46 52 4.0 8.0 0.00 0.84 0.00 96 1042.9
20200329112940 46 74 4.0 8.0 0.00 0.84 0.00 96 1042.9
20200329112909 46 54 4.0 8.0 0.00 0.84 0.00 96 1042.8
20200329112847 46 69 3.0 10.0 0.00 0.84 0.00 96 1012.8
20200329112839 46 69 4.0 10.0 0.00 0.84 0.00 96 1042.8
20200329112739 46 102 5.0 12.0 0.00 0.84 0.00 96 1042.8
20200329112639 46 44 5.0 12.0 0.00 0.84 0.00 96 1042.6
20200329112539 46 49 5.0 12.0 0.00 0.84 0.00 96 1042.6
20200329112439 46 91 5.0 12.0 0.00 0.84 0.00 96 1042.6
20200329112407 46 57 5.0 12.0 0.00 0.84 0.00 96 1042.6
20200329112347 46 39 5.0 12.0 0.00 0.84 0.00 96 1012.7
20200329112339 46 37 5.0 12.0 0.00 0.84 0.00 96 1042.6
20200329112239 46 44 5.0 12.0 0.00 0.84 0.00 96 1042.7
20200329112140 46 59 6.0 12.0 0.00 0.84 0.00 96 1042.7
20200329112040 46 55 5.0 12.0 0.00 0.84 0.00 96 1042.7
20200329111941 46 72 5.0 12.0 0.00 0.85 0.00 96 1042.8
20200329111908 46 44 5.0 12.0 0.00 0.85 0.00 96 1042.9
20200329111847 46 107 3.0 12.0 0.00 0.85 0.00 96 1012.9
20200329111840 46 101 5.0 12.0 0.00 0.85 0.00 96 1042.9
20200329111740 46 73 5.0 11.0 0.00 0.85 0.00 96 1042.9
20200329111640 46 39 5.0 11.0 0.00 0.85 0.00 96 1042.8
20200329111540 46 46 5.0 11.0 0.00 0.85 0.00 96 1042.9
20200329111440 46 45 5.0 11.0 0.00 0.85 0.00 96 1042.9
20200329111407 46 85 5.0 10.0 0.00 0.85 0.00 96 1042.9
20200329111354 46 42 4.0 10.0 0.00 0.85 0.00 96 1012.9
20200329111240 46 37 5.0 10.0 0.00 0.85 0.00 96 1042.9
20200329111140 46 50 4.0 10.0 0.00 0.85 0.00 96 1042.9
20200329111040 46 68 4.0 10.0 0.00 0.85 0.00 96 1042.9
20200329110940 46 96 4.0 10.0 0.00 0.85 0.00 96 1042.9
20200329110908 46 33 4.0 10.0 0.00 0.85 0.00 96 1042.9
20200329110847 46 57 9.0 10.0 0.00 0.85 0.00 96 1012.9
20200329110836 46 57 4.0 10.0 0.00 0.85 0.00 96 1042.9
20200329110737 46 79 4.0 9.0 0.00 0.85 0.00 96 1042.9
20200329110637 46 37 4.0 9.0 0.00 0.85 0.00 96 1042.9
20200329110538 46 76 4.0 10.0 0.00 0.85 0.00 96 1043.0
20200329110436 46 50 4.0 13.0 0.00 0.85 0.00 96 1042.9
20200329110405 46 56 5.0 13.0 0.00 0.85 0.00 96 1043.0
20200329110347 46 83 1.0 13.0 0.00 0.85 0.00 96 1013.0
20200329110336 46 60 5.0 13.0 0.00 0.85 0.00 96 1043.0
20200329110236 46 59 5.0 13.0 0.00 0.85 0.00 96 1043.0
20200329110136 46 42 5.0 13.0 0.00 0.85 0.00 97 1043.0
20200329110036 46 61 5.0 13.0 0.00 0.85 0.00 97 1043.1
20200329105936 46 82 5.0 13.0 0.00 0.85 0.00 97 1043.1
20200329105904 46 61 5.0 13.0 0.00 0.85 0.00 97 1043.1
20200329105847 46 56 7.0 13.0 0.00 0.85 0.00 97 1013.0
20200329105836 46 64 5.0 13.0 0.00 0.85 0.00 97 1043.1
20200329105736 46 64 5.0 13.0 0.00 0.85 0.00 97 1043.0
20200329105635 46 84 5.0 13.0 0.00 0.85 0.00 97 1043.0
20200329105535 46 57 4.0 13.0 0.00 0.85 0.00 97 1043.0
20200329105436 46 38 4.0 10.0 0.00 0.85 0.00 97 1043.0
20200329105404 46 5 4.0 10.0 0.00 0.85 0.00 97 1042.9
20200329105347 46 37 3.0 9.0 0.00 0.85 0.00 97 1012.9
20200329105336 46 34 4.0 10.0 0.00 0.85 0.00 97 1042.9
20200329105236 46 77 4.0 10.0 0.00 0.85 0.00 97 1042.9
20200329105136 46 43 4.0 10.0 0.00 0.85 0.00 97 1042.8
20200329105037 46 36 4.0 9.0 0.00 0.85 0.00 97 1042.8
20200329104936 46 53 4.0 9.0 0.00 0.85 0.00 97 1042.8
20200329104904 46 47 4.0 9.0 0.00 0.85 0.00 97 1042.8
20200329104847 46 33 8.0 9.0 0.00 0.85 0.00 97 1012.7
20200329104836 46 36 4.0 9.0 0.00 0.85 0.00 97 1042.8
20200329104736 46 34 4.0 9.0 0.00 0.85 0.00 97 1042.7
20200329104636 46 40 4.0 9.0 0.00 0.85 0.00 97 1042.6
20200329104534 46 55 5.0 11.0 0.00 0.85 0.00 97 1042.6
20200329104433 46 48 5.0 11.0 0.00 0.85 0.00 97 1042.5
20200329104405 46 40 5.0 11.0 0.00 0.85 0.00 97 1042.5
20200329104347 46 40 5.0 11.0 0.00 0.85 0.00 97 1012.5
20200329104334 46 42 5.0 11.0 0.00 0.85 0.00 97 1042.5
20200329104235 46 76 5.0 11.0 0.00 0.85 0.00 97 1042.5
20200329104134 46 46 5.0 11.0 0.00 0.85 0.00 97 1042.5
20200329104034 46 49 6.0 11.0 0.00 0.85 0.00 97 1042.4
20200329103934 46 54 6.0 11.0 0.00 0.85 0.00 97 1042.4
20200329103905 46 75 6.0 11.0 0.00 0.85 0.00 97 1042.4
20200329103847 46 85 8.0 11.0 0.00 0.85 0.00 97 1012.3
20200329103834 46 95 6.0 11.0 0.00 0.85 0.00 97 1042.4
20200329103735 46 73 6.0 11.0 0.00 0.85 0.00 97 1042.3
20200329103634 46 57 6.0 11.0 0.00 0.85 0.00 97 1042.3
20200329103534 46 59 6.0 10.0 0.00 0.85 0.00 97 1042.3
20200329103434 46 38 6.0 11.0 0.00 0.85 0.00 97 1042.4
20200329103405 46 45 6.0 11.0 0.00 0.85 0.00 97 1042.4
20200329103347 46 46 2.0 11.0 0.00 0.85 0.00 97 1012.5
20200329103334 46 42 6.0 11.0 0.00 0.85 0.00 97 1042.4
20200329103234 46 26 6.0 11.0 0.00 0.85 0.00 97 1042.5
20200329103134 46 84 5.0 11.0 0.00 0.85 0.00 97 1042.5
20200329103034 46 33 5.0 11.0 0.00 0.85 0.00 97 1042.6
20200329102933 46 58 5.0 11.0 0.00 0.85 0.00 97 1042.6
20200329102905 46 31 5.0 11.0 0.00 0.85 0.00 97 1042.7
20200329102847 46 50 3.0 11.0 0.00 0.85 0.00 97 1012.7
20200329102833 46 56 5.0 11.0 0.00 0.85 0.00 97 1042.7
20200329102733 46 80 4.0 11.0 0.00 0.85 0.00 97 1042.7
20200329102633 46 51 4.0 11.0 0.00 0.85 0.00 97 1042.9
20200329102532 46 39 4.0 11.0 0.00 0.85 0.00 97 1042.8
20200329102432 46 66 3.0 9.0 0.00 0.85 0.00 97 1042.9
20200329102403 46 80 3.0 9.0 0.00 0.85 0.00 97 1043.0
20200329102347 46 49 6.0 8.0 0.00 0.85 0.00 97 1012.9
20200329102331 46 42 3.0 8.0 0.00 0.85 0.00 97 1043.0
20200329102231 46 59 3.0 8.0 0.00 0.85 0.00 97 1042.9
20200329102131 46 64 3.0 10.0 0.00 0.85 0.00 97 1043.0
20200329102027 46 52 3.0 10.0 0.00 0.85 0.00 97 1043.0
20200329101929 46 84 3.0 10.0 0.00 0.85 0.00 97 1043.0
20200329101906 46 75 3.0 10.0 0.00 0.85 0.00 97 1043.0
20200329101847 46 59 1.0 10.0 0.00 0.85 0.00 97 1013.0
20200329101827 46 59 3.0 10.0 0.00 0.85 0.00 97 1043.0
20200329101728 46 108 4.0 10.0 0.00 0.85 0.00 97 1042.9
20200329101627 46 100 4.0 10.0 0.00 0.85 0.00 97 1042.9
20200329101525 46 79 4.0 10.0 0.00 0.85 0.00 97 1042.9
20200329101425 46 65 5.0 11.0 0.00 0.85 0.00 97 1042.8
20200329101404 46 70 5.0 11.0 0.00 0.85 0.00 97 1042.8
20200329101347 46 31 3.0 11.0 0.00 0.85 0.00 97 1012.8
20200329101325 46 31 5.0 11.0 0.00 0.85 0.00 97 1042.8
20200329101224 46 59 5.0 11.0 0.00 0.85 0.00 97 1042.7
20200329101125 46 71 5.0 11.0 0.00 0.85 0.00 97 1042.6
20200329101025 46 40 6.0 11.0 0.00 0.85 0.00 97 1042.5
20200329100925 46 53 6.0 12.0 0.00 0.85 0.00 97 1042.6
20200329100903 46 98 6.0 12.0 0.00 0.85 0.00 97 1042.6
20200329100847 46 82 7.0 12.0 0.00 0.85 0.00 97 1012.5
20200329100824 46 82 6.0 12.0 0.00 0.85 0.00 97 1042.5
20200329100725 46 75 6.0 12.0 0.00 0.85 0.00 97 1042.4
20200329100624 46 85 5.0 12.0 0.00 0.85 0.00 97 1042.3
20200329100524 46 55 5.0 12.0 0.00 0.85 0.00 97 1042.2
20200329100424 46 102 5.0 12.0 0.00 0.85 0.00 97 1042.2
20200329100404 46 44 5.0 12.0 0.00 0.85 0.00 97 1042.2
20200329100347 46 80 10.0 12.0 0.00 0.85 0.00 97 1012.2
20200329100325 46 80 4.0 12.0 0.00 0.85 0.00 97 1042.2
20200329100225 46 93 4.0 12.0 0.00 0.85 0.00 97 1042.2
20200329100124 46 63 4.0 12.0 0.00 0.85 0.00 97 1042.1
20200329100025 46 69 4.0 12.0 0.00 0.85 0.00 97 1042.1
20200329095924 46 50 4.0 8.0 0.00 0.85 0.00 97 1042.2
20200329095904 46 92 4.0 8.0 0.00 0.85 0.00 97 1042.2
20200329095847 46 42 4.0 8.0 0.00 0.85 0.00 97 1012.2
20200329095824 46 42 4.0 8.0 0.00 0.85 0.00 97 1042.2
20200329095723 46 73 4.0 8.0 0.00 0.85 0.00 97 1042.3
20200329095625 46 74 4.0 8.0 0.00 0.85 0.00 97 1042.4
20200329095524 46 86 4.0 8.0 0.00 0.85 0.00 97 1042.4
20200329095424 46 69 5.0 11.0 0.00 0.85 0.00 97 1042.5
20200329095403 46 61 5.0 11.0 0.00 0.85 0.00 97 1042.5
20200329095347 46 69 2.0 11.0 0.00 0.85 0.00 97 1012.5
20200329095323 46 70 5.0 11.0 0.00 0.85 0.00 97 1042.5
20200329095224 46 42 5.0 11.0 0.00 0.85 0.00 97 1042.5
20200329095124 46 69 5.0 11.0 0.00 0.85 0.00 97 1042.4
20200329095024 46 84 5.0 11.0 0.00 0.86 0.00 97 1042.5
20200329094923 46 46 5.0 11.0 0.00 0.86 0.00 97 1042.5
20200329094902 46 55 5.0 11.0 0.00 0.86 0.00 97 1042.5
20200329094847 46 41 6.0 11.0 0.00 0.86 0.00 97 1012.5
20200329094824 46 36 5.0 11.0 0.00 0.86 0.00 97 1042.5
20200329094724 46 40 4.0 11.0 0.00 0.86 0.00 97 1042.5
20200329094624 46 67 4.0 11.0 0.00 0.86 0.00 97 1042.4
20200329094523 46 38 4.0 11.0 0.00 0.86 0.00 97 1042.5
20200329094423 46 33 3.0 11.0 0.00 0.86 0.00 97 1042.5
20200329094405 46 41 3.0 11.0 0.00 0.86 0.00 97 1042.5
20200329094347 46 49 3.0 11.0 0.00 0.86 0.00 97 1012.5
20200329094322 46 63 3.0 11.0 0.00 0.86 0.00 97 1042.5
20200329094222 46 43 3.0 11.0 0.00 0.86 0.00 97 1042.5
20200329094123 46 49 3.0 9.0 0.00 0.86 0.00 97 1042.6
20200329094023 46 61 3.0 9.0 0.00 0.86 0.00 97 1042.6
20200329093923 46 10 4.0 9.0 0.00 0.86 0.00 97 1042.6
20200329093904 46 47 4.0 9.0 0.00 0.86 0.00 97 1042.6
20200329093847 46 52 3.0 9.0 0.00 0.86 0.00 97 1012.7
20200329093823 46 51 4.0 9.0 0.00 0.86 0.00 97 1042.7
20200329093723 46 57 4.0 9.0 0.00 0.86 0.00 97 1042.7
20200329093623 46 77 4.0 9.0 0.00 0.86 0.00 97 1042.7
20200329093523 46 39 5.0 9.0 0.00 0.86 0.00 97 1042.7
20200329093402 46 38 5.0 9.0 0.00 0.86 0.00 97 1042.6
20200329093347 46 30 2.0 9.0 0.00 0.86 0.00 97 1012.5
20200329093320 46 30 5.0 9.0 0.00 0.86 0.00 97 1042.5
20200329093220 46 19 5.0 9.0 0.00 0.86 0.00 97 1042.5
20200329093119 46 68 5.0 8.0 0.00 0.86 0.00 97 1042.4
20200329093020 46 36 5.0 9.0 0.00 0.86 0.00 97 1042.4
20200329092920 46 58 5.0 9.0 0.00 0.86 0.00 97 1042.4
20200329092903 46 5 5.0 9.0 0.00 0.86 0.00 97 1042.4
20200329092847 46 32 5.0 9.0 0.00 0.86 0.00 97 1012.4
20200329092819 46 30 4.0 9.0 0.00 0.86 0.00 97 1042.4
20200329092720 46 19 4.0 9.0 0.00 0.86 0.00 97 1042.4
20200329092619 46 48 4.0 9.0 0.00 0.86 0.00 97 1042.4
20200329092520 46 32 3.0 9.0 0.00 0.86 0.00 97 1042.4
20200329092419 46 26 3.0 9.0 0.00 0.86 0.00 97 1042.4
20200329092403 46 29 3.0 9.0 0.00 0.86 0.00 97 1042.4
20200329092347 46 36 4.0 9.0 0.00 0.86 0.00 97 1012.4
20200329092319 46 37 3.0 9.0 0.00 0.86 0.00 97 1042.4
20200329092220 46 35 3.0 9.0 0.00 0.86 0.00 97 1042.4
20200329092120 46 69 3.0 9.0 0.00 0.86 0.00 97 1042.5
20200329092019 46 54 3.0 9.0 0.00 0.86 0.00 97 1042.5
20200329091922 46 55 3.0 9.0 0.00 0.86 0.00 97 1042.5
20200329091903 46 65 3.0 9.0 0.00 0.86 0.00 97 1042.5
20200329091847 46 59 0.0 7.0 0.00 0.86 0.00 97 1012.5
20200329091720 46 51 3.0 7.0 0.00 0.86 0.00 97 1042.5
20200329091619 46 58 3.0 7.0 0.00 0.86 0.00 97 1042.4
20200329091403 46 43 3.0 7.0 0.00 0.86 0.00 97 1042.4
20200329091347 46 64 4.0 7.0 0.00 0.86 0.00 97 1012.5
20200329091319 46 53 2.0 7.0 0.00 0.86 0.00 97 1042.5
20200329091219 46 57 2.0 7.0 0.00 0.86 0.00 97 1042.4
20200329091119 46 42 2.0 7.0 0.00 0.86 0.00 97 1042.4
20200329091020 46 40 2.0 6.0 0.00 0.86 0.00 97 1042.4
20200329090920 46 50 2.0 6.0 0.00 0.86 0.00 97 1042.4
20200329090903 46 27 2.0 5.0 0.00 0.86 0.00 97 1042.4
20200329090847 46 75 3.0 4.0 0.00 0.86 0.00 97 1012.4
20200329090819 46 58 2.0 4.0 0.00 0.86 0.00 97 1042.4
20200329090719 46 49 1.0 4.0 0.00 0.86 0.00 97 1042.5
20200329090619 46 26 2.0 4.0 0.00 0.86 0.00 97 1042.6
20200329090520 46 58 2.0 7.0 0.00 0.86 0.00 97 1042.6
20200329090420 46 83 2.0 7.0 0.00 0.86 0.00 97 1042.6
20200329090403 46 83 2.0 9.0 0.00 0.86 0.00 97 1042.6
20200329090347 46 80 0.0 9.0 0.00 0.86 0.00 97 1012.6
20200329090320 46 73 2.0 9.0 0.00 0.86 0.00 97 1042.6
20200329090219 46 83 2.0 9.0 0.00 0.86 0.00 97 1042.6
20200329090119 46 57 3.0 9.0 0.00 0.86 0.00 97 1042.6
20200329090020 46 78 3.0 9.0 0.00 0.86 0.00 97 1042.5
20200329085920 46 62 3.0 9.0 0.00 0.86 0.00 97 1042.5
20200329085901 46 62 3.0 9.0 0.00 0.86 0.00 97 1042.5
20200329085847 46 57 1.0 9.0 0.00 0.86 0.00 97 1012.4
20200329085819 46 57 3.0 9.0 0.00 0.86 0.00 97 1042.4
20200329085720 46 58 3.0 9.0 0.00 0.86 0.00 97 1042.3
20200329085620 46 88 3.0 9.0 0.00 0.86 0.00 97 1042.3
20200329085518 46 53 3.0 9.0 0.00 0.86 0.00 97 1042.2
20200329085418 46 91 3.0 9.0 0.00 0.86 0.00 97 1042.3
20200329085401 46 60 3.0 7.0 0.00 0.86 0.00 97 1042.3
20200329085347 46 33 2.0 7.0 0.00 0.86 0.00 97 1012.2
20200329085318 46 32 3.0 7.0 0.00 0.86 0.00 97 1042.2
20200329085218 46 78 2.0 7.0 0.00 0.86 0.00 97 1042.3
20200329085118 46 91 2.0 7.0 0.00 0.86 0.00 97 1042.2
20200329085019 46 90 2.0 7.0 0.00 0.86 0.00 97 1042.2
20200329084918 46 44 2.0 7.0 0.00 0.86 0.00 97 1042.2
20200329084901 46 38 2.0 7.0 0.00 0.86 0.00 97 1042.2
20200329084847 46 53 2.0 7.0 0.00 0.86 0.00 97 1012.2
20200329084818 46 53 2.0 7.0 0.00 0.86 0.00 97 1042.2
20200329084718 46 69 2.0 7.0 0.00 0.86 0.00 97 1042.3
20200329084618 46 76 2.0 7.0 0.00 0.86 0.00 97 1042.4
20200329084518 46 98 2.0 7.0 0.00 0.86 0.00 97 1042.5
20200329084417 46 46 2.0 7.0 0.00 0.86 0.00 97 1042.5
20200329084401 46 46 2.0 7.0 0.00 0.86 0.00 97 1042.5
20200329084347 46 46 0.0 7.0 0.00 0.86 0.00 97 1012.4
20200329084319 46 46 2.0 7.0 0.00 0.86 0.00 97 1042.4
20200329084217 46 63 2.0 7.0 0.00 0.86 0.00 97 1042.4
20200329084117 46 84 2.0 7.0 0.00 0.86 0.00 97 1042.3
20200329084018 46 88 1.0 7.0 0.00 0.86 0.00 97 1042.2
20200329083919 46 89 1.0 7.0 0.00 0.86 0.00 97 1042.3
20200329083902 46 78 1.0 7.0 0.00 0.86 0.00 97 1042.3
20200329083847 46 99 6.0 7.0 0.00 0.86 0.00 97 1012.3
20200329083817 46 76 1.0 7.0 0.00 0.86 0.00 97 1042.3
20200329083716 46 67 1.0 7.0 0.00 0.86 0.00 97 1042.3
20200329083616 46 78 1.0 7.0 0.00 0.86 0.00 97 1042.3
20200329083511 46 92 1.0 7.0 0.00 0.86 0.00 97 1042.3
20200329083411 46 89 0.0 7.0 0.00 0.86 0.00 97 1042.4
20200329083401 46 79 0.0 6.0 0.00 0.86 0.00 97 1042.4
20200329083347 46 79 4.0 4.0 0.00 0.86 0.00 97 1012.4
20200329083312 46 97 0.0 4.0 0.00 0.86 0.00 97 1042.4
20200329083213 46 84 1.0 6.0 0.00 0.86 0.00 97 1042.4
20200329083108 46 78 1.0 8.0 0.00 0.86 0.00 97 1042.4
20200329083008 46 77 2.0 9.0 0.00 0.86 0.00 97 1042.4
20200329082908 46 86 2.0 9.0 0.00 0.86 0.00 97 1042.4
20200329082901 46 86 2.0 9.0 0.00 0.86 0.00 97 1042.4
20200329082847 46 86 0.0 9.0 0.00 0.86 0.00 97 1012.5
20200329082808 46 114 2.0 9.0 0.00 0.86 0.00 97 1042.5
20200329082708 46 63 2.0 9.0 0.00 0.86 0.00 97 1042.5
20200329082607 46 55 2.0 9.0 0.00 0.86 0.00 97 1042.4
20200329082507 46 9 2.0 9.0 0.00 0.86 0.00 97 1042.3
20200329082407 46 46 2.0 9.0 0.00 0.86 0.00 97 1042.3
20200329082401 46 46 2.0 9.0 0.00 0.86 0.00 97 1042.3
20200329082347 46 46 0.0 9.0 0.00 0.86 0.00 97 1012.3
20200329082307 46 59 3.0 9.0 0.00 0.86 0.00 97 1042.3
20200329082207 46 59 3.0 9.0 0.00 0.86 0.00 97 1042.4
20200329082108 46 54 2.0 9.0 0.00 0.86 0.00 97 1042.4
20200329082008 46 67 2.0 7.0 0.00 0.86 0.00 97 1042.5
20200329081908 46 76 3.0 7.0 0.00 0.86 0.00 97 1042.5
20200329081900 46 76 3.0 7.0 0.00 0.86 0.00 97 1042.5
20200329081847 46 76 0.0 8.0 0.00 0.86 0.00 97 1012.4
20200329081808 46 61 3.0 9.0 0.00 0.86 0.00 97 1042.4
20200329081707 46 59 3.0 9.0 0.00 0.86 0.00 97 1042.4
20200329081609 46 58 3.0 9.0 0.00 0.86 0.00 97 1042.3
20200329081507 46 60 4.0 9.0 0.00 0.86 0.00 97 1042.2
20200329081407 46 51 4.0 9.0 0.00 0.86 0.00 97 1042.3
20200329081401 46 46 4.0 9.0 0.00 0.86 0.00 97 1042.3
20200329081347 46 49 4.0 9.0 0.00 0.86 0.00 97 1012.3
20200329081307 46 38 4.0 9.0 0.00 0.86 0.00 97 1042.3
20200329081208 46 65 3.0 9.0 0.00 0.86 0.00 97 1042.2
20200329081108 46 41 4.0 9.0 0.00 0.86 0.00 97 1042.2
20200329081008 46 84 4.0 9.0 0.00 0.86 0.00 97 1042.3
20200329080908 46 51 4.0 9.0 0.00 0.86 0.00 97 1042.2
20200329080900 46 44 4.0 9.0 0.00 0.86 0.00 97 1042.2
20200329080847 46 78 4.0 9.0 0.00 0.86 0.00 97 1012.3
20200329080807 46 60 3.0 9.0 0.00 0.86 0.00 97 1042.3
20200329080608 46 65 4.0 7.0 0.00 0.86 0.00 97 1042.3
20200329080506 46 49 4.0 10.0 0.00 0.86 0.00 97 1042.3
20200329080407 46 64 4.0 10.0 0.00 0.86 0.00 97 1042.3
20200329080400 46 54 4.0 10.0 0.00 0.86 0.00 97 1042.3
20200329080348 46 63 5.0 10.0 0.00 0.86 0.00 97 1012.4
20200329080307 46 53 4.0 10.0 0.00 0.86 0.00 97 1042.4
20200329080207 46 36 4.0 10.0 0.00 0.86 0.00 97 1042.4
20200329080105 46 66 3.0 10.0 0.00 0.86 0.00 97 1042.4
20200329080005 46 62 3.0 10.0 0.00 0.86 0.00 97 1042.5
20200329075906 46 59 3.0 10.0 0.00 0.86 0.00 97 1042.4
20200329075900 46 76 3.0 10.0 0.00 0.86 0.00 97 1042.4
20200329075847 46 74 2.0 10.0 0.00 0.86 0.00 97 1012.5
20200329075807 46 67 2.0 10.0 0.00 0.86 0.00 97 1042.5
20200329075704 46 41 2.0 10.0 0.00 0.86 0.00 97 1042.6
20200329075604 46 90 2.0 10.0 0.00 0.86 0.00 97 1042.7
20200329075503 46 49 2.0 9.0 0.00 0.86 0.00 97 1042.8
20200329075405 46 72 1.0 9.0 0.00 0.86 0.00 97 1042.9
20200329075400 46 65 1.0 9.0 0.00 0.86 0.00 97 1042.9
20200329075347 46 9 2.0 9.0 0.00 0.86 0.00 97 1013.0
20200329075305 46 96 1.0 9.0 0.00 0.86 0.00 97 1043.0
20200329075204 46 67 1.0 7.0 0.00 0.86 0.00 97 1043.1
20200329075103 46 61 1.0 7.0 0.00 0.86 0.00 97 1043.2
20200329075003 46 90 1.0 7.0 0.00 0.86 0.00 97 1043.3
20200329074905 46 90 1.0 7.0 0.00 0.86 0.00 97 1043.4
20200329074859 46 90 1.0 7.0 0.00 0.86 0.00 97 1043.4
20200329074847 46 63 1.0 7.0 0.00 0.86 0.00 97 1013.4
20200329074803 46 63 1.0 7.0 0.00 0.86 0.00 97 1043.4
20200329074704 46 63 2.0 7.0 0.00 0.86 0.00 97 1043.4
20200329074604 46 51 2.0 7.0 0.00 0.86 0.00 97 1043.4
20200329074506 46 50 2.0 7.0 0.00 0.86 0.00 97 1043.4
20200329074405 46 40 2.0 6.0 0.00 0.86 0.00 97 1043.3
20200329074400 46 40 2.0 6.0 0.00 0.86 0.00 97 1043.3
20200329074348 46 40 0.0 6.0 0.00 0.86 0.00 97 1013.4
20200329074304 46 40 2.0 6.0 0.00 0.86 0.00 97 1043.4
20200329074204 46 40 2.0 6.0 0.00 0.86 0.00 97 1043.4
20200329074104 46 40 3.0 6.0 0.00 0.86 0.00 97 1043.4
20200329073906 46 29 2.0 6.0 0.00 0.86 0.00 97 1043.3
20200329073901 46 29 2.0 6.0 0.00 0.86 0.00 97 1043.3
20200329073847 46 22 1.0 6.0 0.00 0.86 0.00 97 1013.3
20200329073805 46 45 2.0 6.0 0.00 0.86 0.00 97 1043.3
20200329073704 46 56 2.0 6.0 0.00 0.86 0.00 97 1043.3
20200329073605 46 61 2.0 6.0 0.00 0.86 0.00 97 1043.3
20200329073505 46 44 2.0 6.0 0.00 0.86 0.00 97 1043.2
20200329073407 46 49 2.0 6.0 0.00 0.86 0.00 97 1043.2
20200329073402 46 49 2.0 6.0 0.00 0.86 0.00 97 1043.2
20200329073347 46 49 1.0 6.0 0.00 0.86 0.00 97 1013.3
20200329073304 46 49 3.0 6.0 0.00 0.86 0.00 97 1043.3
20200329073204 46 59 3.0 7.0 0.00 0.86 0.00 97 1043.3
20200329073104 46 57 3.0 7.0 0.00 0.86 0.00 97 1043.3
20200329073004 46 44 3.0 7.0 0.00 0.86 0.00 97 1043.2
20200329072905 46 44 3.0 7.0 0.00 0.86 0.00 97 1043.3
20200329072900 46 46 3.0 7.0 0.00 0.86 0.00 97 1043.3
20200329072847 46 46 2.0 7.0 0.00 0.86 0.00 97 1013.3
20200329072804 46 51 3.0 7.0 0.00 0.86 0.00 97 1043.3
20200329072704 46 36 3.0 7.0 0.00 0.86 0.00 97 1043.4
20200329072604 46 46 3.0 7.0 0.00 0.86 0.00 97 1043.3
20200329072504 46 35 4.0 9.0 0.00 0.86 0.00 97 1043.3
20200329072403 46 45 3.0 9.0 0.00 0.86 0.00 97 1043.3
20200329072357 46 56 3.0 9.0 0.00 0.86 0.00 97 1043.3
20200329072347 46 34 1.0 9.0 0.00 0.86 0.00 97 1013.3
20200329072305 46 36 3.0 9.0 0.00 0.86 0.00 97 1043.3
20200329072203 46 22 3.0 9.0 0.00 0.86 0.00 97 1043.4
20200329072105 46 44 3.0 9.0 0.00 0.86 0.00 97 1043.4
20200329072003 46 42 3.0 9.0 0.00 0.86 0.00 97 1043.4
20200329071904 46 46 3.0 9.0 0.00 0.86 0.00 97 1043.4
20200329071900 46 46 3.0 9.0 0.00 0.86 0.00 97 1043.4
20200329071847 46 322 5.0 9.0 0.00 0.86 0.00 97 1013.4
20200329071802 46 46 3.0 9.0 0.00 0.86 0.00 97 1043.4
20200329071700 46 46 3.0 9.0 0.00 0.86 0.00 97 1043.4
20200329071600 46 55 2.0 9.0 0.00 0.86 0.00 97 1043.4
20200329071501 46 36 2.0 6.0 0.00 0.86 0.00 97 1043.5
20200329071355 46 26 2.0 5.0 0.00 0.86 0.00 97 1043.5
20200329071347 46 52 2.0 5.0 0.00 0.86 0.00 97 1013.4
20200329071258 46 44 3.0 5.0 0.00 0.86 0.00 97 1043.4
20200329071200 46 49 3.0 10.0 0.00 0.86 0.00 97 1043.5
20200329071056 46 62 3.0 10.0 0.00 0.86 0.00 97 1043.4
20200329070956 46 48 3.0 10.0 0.00 0.86 0.00 97 1043.4
20200329070855 46 34 3.0 10.0 0.00 0.86 0.00 97 1043.4
20200329070847 46 36 4.0 10.0 0.00 0.86 0.00 97 1013.4
20200329070756 46 342 3.0 10.0 0.00 0.86 0.00 97 1043.4
20200329070655 46 25 3.0 10.0 0.00 0.86 0.00 97 1043.4
20200329070555 46 40 4.0 10.0 0.00 0.86 0.00 97 1043.4
20200329070453 46 37 4.0 10.0 0.00 0.86 0.00 97 1043.4
20200329070352 46 47 4.0 10.0 0.00 0.86 0.00 97 1043.4
20200329070347 46 40 4.0 10.0 0.00 0.86 0.00 97 1013.4
20200329070252 46 44 4.0 10.0 0.00 0.86 0.00 97 1043.4
20200329070152 46 50 3.0 8.0 0.00 0.86 0.00 97 1043.4
20200329070053 46 26 3.0 8.0 0.00 0.86 0.00 97 1043.4
20200329065953 46 49 3.0 8.0 0.00 0.86 0.00 97 1043.4
20200329065854 46 57 3.0 8.0 0.00 0.86 0.00 97 1043.4
20200329065847 46 46 5.0 8.0 0.00 0.86 0.00 97 1013.4
20200329065752 46 53 3.0 8.0 0.00 0.86 0.00 97 1043.4
20200329065650 46 79 3.0 8.0 0.00 0.86 0.00 97 1043.5
20200329065550 46 38 3.0 8.0 0.00 0.86 0.00 97 1043.5
20200329065449 46 33 3.0 8.0 0.00 0.86 0.00 97 1043.5
20200329065350 46 36 3.0 8.0 0.00 0.86 0.00 97 1043.5
20200329065348 46 37 3.0 10.0 0.00 0.86 0.00 97 1013.5
20200329065250 46 54 3.0 10.0 0.00 0.86 0.00 97 1043.5
20200329065149 46 63 3.0 10.0 0.00 0.86 0.00 97 1043.5
20200329065050 46 18 3.0 10.0 0.00 0.86 0.00 97 1043.6
20200329064949 46 12 3.0 10.0 0.00 0.86 0.00 97 1043.5
20200329064853 46 11 3.0 10.0 0.00 0.86 0.00 97 1043.6
20200329064847 46 49 0.0 10.0 0.00 0.86 0.00 97 1013.5
20200329064747 46 61 3.0 10.0 0.00 0.86 0.00 97 1043.5
20200329064644 46 79 3.0 10.0 0.00 0.86 0.00 97 1043.5
20200329064544 46 53 3.0 10.0 0.00 0.86 0.00 97 1043.6
20200329064445 46 45 3.0 10.0 0.00 0.86 0.00 97 1043.6
20200329064350 46 48 3.0 10.0 0.00 0.86 0.00 97 1043.6
20200329064347 46 47 10.0 10.0 0.00 0.86 0.00 97 1013.7
20200329064343 46 49 3.0 10.0 0.00 0.86 0.00 97 1043.6
20200329064243 46 53 3.0 7.0 0.00 0.86 0.00 97 1043.7
20200329064143 46 59 3.0 7.0 0.00 0.86 0.00 97 1043.8
20200329064043 46 48 3.0 7.0 0.00 0.86 0.00 97 1043.9
20200329063942 46 48 3.0 7.0 0.00 0.86 0.00 97 1043.9
20200329063848 46 57 0.0 7.0 0.00 0.86 0.00 97 1013.9
20200329063843 46 57 3.0 7.0 0.00 0.86 0.00 97 1043.9
20200329063743 46 57 3.0 7.0 0.00 0.86 0.00 97 1043.9
20200329063643 46 17 3.0 8.0 0.00 0.86 0.00 97 1043.9
20200329063542 46 48 3.0 8.0 0.00 0.86 0.00 97 1043.9
20200329063442 46 48 3.0 8.0 0.00 0.86 0.00 97 1043.8
20200329063351 46 33 3.0 8.0 0.00 0.86 0.00 97 1043.8
20200329063347 46 25 4.0 7.0 0.00 0.86 0.00 97 1013.9
20200329063344 46 28 3.0 8.0 0.00 0.86 0.00 97 1043.8
20200329063242 46 15 3.0 8.0 0.00 0.86 0.00 97 1043.9
20200329063144 46 17 3.0 8.0 0.00 0.86 0.00 97 1043.9
20200329063043 46 50 3.0 8.0 0.00 0.86 0.00 97 1043.9
20200329062942 46 53 3.0 8.0 0.00 0.86 0.00 97 1043.9
20200329062847 46 42 4.0 7.0 0.00 0.86 0.00 97 1013.9
20200329062842 46 49 3.0 8.0 0.00 0.86 0.00 97 1043.9
20200329062742 46 42 3.0 8.0 0.00 0.86 0.00 97 1043.9
20200329062642 46 47 3.0 5.0 0.00 0.86 0.00 97 1043.9
20200329062542 46 5 3.0 5.0 0.00 0.86 0.00 97 1043.9
20200329062442 46 48 3.0 5.0 0.00 0.86 0.00 97 1043.9
20200329062349 46 48 3.0 5.0 0.00 0.86 0.00 97 1043.9
20200329062347 46 53 1.0 5.0 0.00 0.86 0.00 97 1013.9
20200329062342 46 49 3.0 5.0 0.00 0.86 0.00 97 1043.9
20200329062242 46 53 3.0 5.0 0.00 0.86 0.00 97 1043.9
20200329062141 46 19 3.0 5.0 0.00 0.86 0.00 97 1043.9
20200329062041 46 47 3.0 5.0 0.00 0.86 0.00 97 1043.9
20200329061941 46 55 3.0 5.0 0.00 0.86 0.00 97 1043.9
20200329061847 46 44 2.0 5.0 0.00 0.86 0.00 97 1014.0
20200329061839 46 44 3.0 5.0 0.00 0.86 0.00 97 1043.9
20200329061739 46 44 3.0 5.0 0.00 0.86 0.00 97 1044.0
20200329061637 46 44 3.0 5.0 0.00 0.86 0.00 97 1044.0
20200329061536 46 44 2.0 5.0 0.00 0.86 0.00 97 1044.0
20200329061437 46 11 2.0 5.0 0.00 0.86 0.00 97 1044.0
20200329061348 46 11 3.0 5.0 0.00 0.86 0.00 97 1013.9
20200329061337 46 11 2.0 5.0 0.00 0.86 0.00 97 1044.0
20200329061238 46 355 2.0 5.0 0.00 0.86 0.00 97 1043.9
20200329061134 46 38 2.0 5.0 0.00 0.86 0.00 97 1043.8
20200329061106 46 46 2.0 5.0 0.00 0.86 0.00 97 1043.8
20200329060952 46 33 2.0 5.0 0.00 0.86 0.00 97 1043.8
20200329060847 46 52 1.0 5.0 0.00 0.86 0.00 97 1013.9
20200329060835 46 52 2.0 5.0 0.00 0.86 0.00 97 1043.8
20200329060733 46 53 2.0 5.0 0.00 0.86 0.00 97 1043.9
20200329060633 46 34 2.0 7.0 0.00 0.86 0.00 97 1043.9
20200329060533 46 5 2.0 7.0 0.00 0.86 0.00 97 1043.8
20200329060434 46 49 2.0 7.0 0.00 0.86 0.00 97 1043.8
20200329060348 46 49 0.0 7.0 0.00 0.86 0.00 97 1013.7
20200329060334 46 49 2.0 7.0 0.00 0.86 0.00 97 1043.8
20200329060234 46 49 3.0 7.0 0.00 0.86 0.00 97 1043.7
20200329060133 46 49 3.0 7.0 0.00 0.86 0.00 97 1043.7
20200329060032 46 50 3.0 8.0 0.00 0.86 0.00 97 1043.7
20200329055931 46 17 3.0 8.0 0.00 0.86 0.00 97 1043.7
20200329055847 46 30 2.0 8.0 0.00 0.86 0.00 97 1013.7
20200329055831 46 30 3.0 8.0 0.00 0.86 0.00 97 1043.7
20200329055731 46 30 3.0 8.0 0.00 0.86 0.00 97 1043.7
20200329055631 46 41 3.0 8.0 0.00 0.86 0.00 97 1043.7
20200329055530 46 40 2.0 8.0 0.00 0.86 0.00 97 1043.7
20200329055432 46 51 2.0 8.0 0.00 0.86 0.00 97 1043.7
20200329055347 46 51 3.0 8.0 0.00 0.86 0.00 97 1013.6
20200329055332 46 51 2.0 8.0 0.00 0.86 0.00 97 1043.7
20200329055232 46 52 2.0 8.0 0.00 0.86 0.00 97 1043.6
20200329055130 46 64 1.0 8.0 0.00 0.86 0.00 97 1043.5
20200329055030 46 36 1.0 4.0 0.00 0.86 0.00 97 1043.6
20200329054928 46 17 1.0 4.0 0.00 0.86 0.00 97 1043.9
20200329054847 46 9 1.0 4.0 0.00 0.86 0.00 97 1014.0
20200329054829 46 9 1.0 4.0 0.00 0.86 0.00 97 1044.0
20200329054730 46 39 1.0 4.0 0.00 0.86 0.00 97 1044.0
20200329054631 46 39 1.0 4.0 0.00 0.86 0.00 97 1044.0
20200329054530 46 39 1.0 4.0 0.00 0.86 0.00 97 1043.9
20200329054430 46 39 1.0 4.0 0.00 0.86 0.00 97 1043.9
20200329054347 46 39 1.0 4.0 0.00 0.86 0.00 97 1013.9
20200329054329 46 39 1.0 4.0 0.00 0.86 0.00 97 1043.9
20200329054230 46 40 1.0 4.0 0.00 0.86 0.00 97 1044.0
20200329054129 46 26 1.0 4.0 0.00 0.86 0.00 97 1044.2
20200329054030 46 15 1.0 4.0 0.00 0.86 0.00 97 1044.3
20200329053930 46 15 1.0 4.0 0.00 0.86 0.00 97 1044.4
20200329053847 46 360 3.0 4.0 0.00 0.86 0.00 97 1014.6
20200329053843 46 0 1.0 4.0 0.00 0.86 0.00 97 1044.4
20200329053830 46 0 1.0 4.0 0.00 0.86 0.00 97 1044.6
20200329053730 46 0 1.0 4.0 0.00 0.86 0.00 97 1044.6
20200329053629 46 0 0.0 3.0 0.00 0.86 0.00 97 1044.7
20200329053531 46 0 1.0 3.0 0.00 0.86 0.00 97 1044.7
20200329053428 46 0 1.0 3.0 0.00 0.86 0.00 97 1044.8
20200329053347 46 360 0.0 5.0 0.00 0.86 0.00 97 1014.9
20200329053344 46 0 1.0 4.0 0.00 0.86 0.00 97 1044.8
20200329053327 46 0 1.0 5.0 0.00 0.86 0.00 97 1044.9
20200329053226 46 0 1.0 5.0 0.00 0.86 0.00 97 1044.9
20200329053126 46 11 1.0 5.0 0.00 0.86 0.00 97 1044.9
20200329053027 46 29 1.0 5.0 0.00 0.86 0.00 97 1044.7
20200329052927 46 30 1.0 5.0 0.00 0.86 0.00 97 1044.6
20200329052847 46 34 0.0 5.0 0.00 0.86 0.00 97 1014.6
20200329052826 46 34 1.0 5.0 0.00 0.86 0.00 97 1044.6
20200329052726 46 34 1.0 5.0 0.00 0.86 0.00 97 1044.6
20200329052627 46 34 1.0 5.0 0.00 0.86 0.00 97 1044.6
20200329052527 46 34 1.0 5.0 0.00 0.86 0.00 97 1044.6
20200329052427 46 32 1.0 5.0 0.00 0.86 0.00 97 1044.6
20200329052347 46 5 4.0 5.0 0.00 0.86 0.00 97 1014.6
20200329052343 46 345 1.0 5.0 0.00 0.86 0.00 97 1044.6
20200329052326 46 5 1.0 5.0 0.00 0.86 0.00 97 1044.6
20200329052226 46 337 1.0 5.0 0.00 0.86 0.00 97 1044.6
20200329052126 46 337 1.0 5.0 0.00 0.86 0.00 97 1044.6
20200329052027 46 337 1.0 5.0 0.00 0.86 0.00 97 1044.6
20200329051926 46 337 1.0 5.0 0.00 0.86 0.00 97 1044.6
20200329051847 46 12 0.0 4.0 0.00 0.86 0.00 97 1014.6
20200329051826 46 12 1.0 4.0 0.00 0.86 0.00 97 1044.6
20200329051726 46 12 1.0 4.0 0.00 0.86 0.00 97 1044.6
20200329051626 46 15 1.0 4.0 0.00 0.86 0.00 97 1044.5
20200329051526 46 13 1.0 4.0 0.00 0.86 0.00 97 1044.4
20200329051426 46 24 1.0 4.0 0.00 0.86 0.00 97 1044.3
20200329051347 46 24 3.0 4.0 0.00 0.86 0.00 97 1014.3
20200329051340 46 25 1.0 4.0 0.00 0.86 0.00 97 1044.3
20200329051326 46 24 1.0 4.0 0.00 0.86 0.00 97 1044.3
20200329051226 46 24 1.0 4.0 0.00 0.86 0.00 97 1044.3
20200329051125 46 20 2.0 5.0 0.00 0.86 0.00 97 1044.3
20200329051026 46 346 2.0 5.0 0.00 0.86 0.00 97 1044.3
20200329050926 46 0 2.0 5.0 0.00 0.86 0.00 97 1044.2
20200329050847 46 30 3.0 5.0 0.00 0.86 0.00 97 1014.2
20200329050826 46 30 2.0 5.0 0.00 0.86 0.00 97 1044.2
20200329050726 46 49 2.0 6.0 0.00 0.86 0.00 97 1044.1
20200329050626 46 49 3.0 6.0 0.00 0.86 0.00 97 1044.0
20200329050526 46 49 3.0 6.0 0.00 0.86 0.00 97 1043.9
20200329050426 46 49 3.0 6.0 0.00 0.86 0.00 97 1043.8
20200329050347 46 49 1.0 6.0 0.00 0.86 0.00 97 1013.8
20200329050328 46 49 3.0 6.0 0.00 0.86 0.00 97 1043.8
20200329050225 46 50 3.0 6.0 0.00 0.86 0.00 97 1043.8
20200329050124 46 40 3.0 6.0 0.00 0.86 0.00 97 1043.8
20200329050024 45 44 2.0 6.0 0.00 0.86 0.00 97 1043.7
20200329045925 46 53 2.0 6.0 0.00 0.86 0.00 97 1043.8
20200329045847 45 53 3.0 6.0 0.00 0.86 0.00 97 1013.8
20200329045821 45 53 2.0 6.0 0.00 0.86 0.00 97 1043.8
20200329045722 45 27 2.0 6.0 0.00 0.86 0.00 97 1043.7
20200329045622 45 68 2.0 6.0 0.00 0.86 0.00 97 1043.8
20200329045523 45 58 2.0 5.0 0.00 0.86 0.00 97 1043.8
20200329045423 45 58 2.0 5.0 0.00 0.86 0.00 97 1043.9
20200329045347 45 69 2.0 5.0 0.00 0.86 0.00 97 1013.9
20200329045335 45 67 2.0 5.0 0.00 0.86 0.00 97 1043.9
20200329045322 45 64 2.0 5.0 0.00 0.86 0.00 97 1043.9
20200329045224 45 54 2.0 5.0 0.00 0.86 0.00 97 1043.9
20200329045123 45 49 2.0 5.0 0.00 0.86 0.00 97 1043.8
20200329045023 45 50 3.0 5.0 0.00 0.86 0.00 97 1043.8
20200329044922 45 50 3.0 5.0 0.00 0.86 0.00 97 1043.8
20200329044847 45 50 1.0 5.0 0.00 0.86 0.00 97 1013.8
20200329044836 45 50 3.0 5.0 0.00 0.86 0.00 97 1043.8
20200329044823 45 50 3.0 7.0 0.00 0.86 0.00 97 1043.8
20200329044724 45 46 3.0 7.0 0.00 0.86 0.00 97 1043.8
20200329044624 45 46 3.0 7.0 0.00 0.86 0.00 97 1043.9
20200329044521 45 44 3.0 7.0 0.00 0.86 0.00 97 1044.0
20200329044420 45 34 3.0 7.0 0.00 0.86 0.00 97 1044.0
20200329044347 45 34 3.0 7.0 0.00 0.86 0.00 97 1014.0
20200329044332 45 34 3.0 7.0 0.00 0.86 0.00 97 1044.0
20200329044321 45 35 3.0 7.0 0.00 0.86 0.00 97 1044.0
20200329044220 45 24 3.0 7.0 0.00 0.86 0.00 97 1044.0
20200329044120 45 36 3.0 7.0 0.00 0.86 0.00 97 1044.0
20200329044021 45 42 3.0 7.0 0.00 0.86 0.00 97 1043.9
20200329043921 45 38 3.0 7.0 0.00 0.86 0.00 97 1043.9
20200329043847 45 56 5.0 7.0 0.00 0.86 0.00 97 1013.9
20200329043832 45 56 3.0 7.0 0.00 0.86 0.00 97 1043.9
20200329043821 45 46 3.0 6.0 0.00 0.86 0.00 97 1043.9
20200329043721 45 39 2.0 6.0 0.00 0.86 0.00 97 1044.0
20200329043621 45 42 2.0 6.0 0.00 0.86 0.00 97 1044.0
20200329043521 45 42 2.0 6.0 0.00 0.86 0.00 97 1044.1
20200329043420 45 42 2.0 6.0 0.00 0.86 0.00 97 1044.1
20200329043347 45 42 3.0 6.0 0.00 0.86 0.00 97 1014.2
20200329043332 45 42 2.0 6.0 0.00 0.86 0.00 97 1044.1
20200329043321 45 42 2.0 6.0 0.00 0.86 0.00 97 1044.2
20200329043222 45 42 2.0 6.0 0.00 0.86 0.00 97 1044.1
20200329043120 45 42 2.0 6.0 0.00 0.86 0.00 97 1044.1
20200329043020 45 42 2.0 6.0 0.00 0.86 0.00 97 1044.0
20200329042920 45 0 2.0 6.0 0.00 0.86 0.00 97 1044.0
20200329042847 45 349 5.0 5.0 0.00 0.86 0.00 97 1014.0
20200329042831 45 339 2.0 6.0 0.00 0.86 0.00 97 1044.0
20200329042820 45 338 2.0 5.0 0.00 0.86 0.00 97 1044.0
20200329042720 45 27 2.0 5.0 0.00 0.86 0.00 97 1043.9
20200329042620 45 26 2.0 5.0 0.00 0.86 0.00 97 1043.9
20200329042519 45 20 2.0 5.0 0.00 0.86 0.00 97 1043.9
20200329042419 45 23 2.0 7.0 0.00 0.86 0.00 97 1043.9
20200329042348 45 23 3.0 7.0 0.00 0.86 0.00 97 1013.9
20200329042319 45 23 2.0 7.0 0.00 0.86 0.00 97 1043.9
20200329042220 45 44 2.0 7.0 0.00 0.86 0.00 97 1044.0
20200329042120 45 45 2.0 7.0 0.00 0.86 0.00 97 1044.0
20200329042019 45 45 2.0 7.0 0.00 0.86 0.00 97 1044.0
20200329041919 45 45 2.0 7.0 0.00 0.86 0.00 96 1044.0
20200329041848 45 45 2.0 7.0 0.00 0.86 0.00 96 1014.0
20200329041819 45 45 2.0 7.0 0.00 0.86 0.00 96 1044.0
20200329041718 45 44 2.0 9.0 0.00 0.86 0.00 96 1043.9
20200329041616 45 13 2.0 9.0 0.00 0.86 0.00 96 1043.9
20200329041516 45 5 2.0 9.0 0.00 0.86 0.00 96 1043.9
20200329041417 45 41 2.0 9.0 0.00 0.86 0.00 96 1043.9
20200329041348 45 41 1.0 9.0 0.00 0.86 0.00 96 1013.9
20200329041317 45 41 2.0 9.0 0.00 0.86 0.00 96 1043.9
20200329041214 45 41 3.0 9.0 0.00 0.86 0.00 96 1044.0
20200329041114 45 30 3.0 9.0 0.00 0.86 0.00 96 1044.0
20200329041014 45 15 3.0 9.0 0.00 0.86 0.00 96 1044.0
20200329040913 45 46 3.0 9.0 0.00 0.86 0.00 96 1044.0
20200329040847 45 52 3.0 9.0 0.00 0.86 0.00 96 1014.1
20200329040830 45 52 3.0 9.0 0.00 0.86 0.00 96 1044.0
20200329040814 45 53 3.0 9.0 0.00 0.86 0.00 96 1044.1
20200329040714 45 16 3.0 7.0 0.00 0.86 0.00 96 1044.1
20200329040613 45 5 3.0 7.0 0.00 0.86 0.00 96 1044.1
20200329040513 45 32 3.0 7.0 0.00 0.86 0.00 96 1044.0
20200329040414 45 76 3.0 7.0 0.00 0.86 0.00 96 1044.1
20200329040348 45 76 2.0 6.0 0.00 0.86 0.00 96 1014.0
20200329040331 45 76 3.0 7.0 0.00 0.86 0.00 96 1044.1
20200329040314 45 76 3.0 7.0 0.00 0.86 0.00 96 1044.0
20200329040214 45 76 3.0 7.0 0.00 0.86 0.00 96 1044.0
20200329040114 45 76 3.0 7.0 0.00 0.86 0.00 96 1043.9
20200329040015 45 76 3.0 7.0 0.00 0.86 0.00 96 1043.8
20200329035914 45 76 3.0 7.0 0.00 0.86 0.86 96 1043.8
20200329035847 45 81 2.0 8.0 0.00 0.86 0.00 96 1013.9
20200329035829 45 81 3.0 8.0 0.00 0.86 0.86 96 1043.9
20200329035811 45 0 3.0 8.0 0.00 0.86 0.86 96 1043.9
20200329035712 45 61 3.0 8.0 0.00 0.86 0.86 96 1043.9
20200329035612 45 53 3.0 8.0 0.00 0.86 0.86 96 1044.0
20200329035512 45 53 3.0 8.0 0.00 0.86 0.86 96 1044.0
20200329035412 45 16 3.0 8.0 0.00 0.86 0.86 96 1043.9
20200329035347 45 16 1.0 8.0 0.00 0.86 0.86 96 1013.9
20200329035330 45 16 4.0 8.0 0.00 0.86 0.86 96 1043.9
20200329035312 45 38 4.0 8.0 0.00 0.86 0.86 96 1043.9
20200329035212 45 51 4.0 8.0 0.00 0.86 0.86 96 1043.8
20200329035112 45 39 4.0 8.0 0.00 0.86 0.86 96 1043.8
20200329035012 45 13 4.0 8.0 0.00 0.86 0.86 96 1043.8
20200329034911 45 47 3.0 8.0 0.00 0.86 0.86 96 1043.7
20200329034847 45 58 5.0 8.0 0.00 0.86 0.86 96 1013.8
20200329034830 45 58 3.0 8.0 0.00 0.86 0.86 96 1043.8
20200329034812 45 47 3.0 8.0 0.00 0.86 0.86 96 1043.8
20200329034711 45 47 3.0 6.0 0.00 0.86 0.86 96 1043.8
20200329034610 45 28 3.0 6.0 0.00 0.86 0.86 96 1043.9
20200329034511 45 33 3.0 6.0 0.00 0.86 0.86 96 1043.9
20200329034410 45 17 3.0 7.0 0.00 0.86 0.86 96 1043.9
20200329034347 45 45 4.0 7.0 0.00 0.86 0.86 96 1013.9
20200329034330 45 45 3.0 7.0 0.00 0.86 0.86 96 1043.9
20200329034310 45 58 3.0 7.0 0.00 0.86 0.86 96 1043.9
20200329034210 45 38 3.0 7.0 0.00 0.86 0.86 96 1044.0
20200329034109 45 17 3.0 7.0 0.00 0.86 0.86 96 1043.9
20200329034009 45 39 3.0 7.0 0.00 0.86 0.86 96 1043.9
20200329033909 45 48 3.0 7.0 0.00 0.86 0.86 96 1043.8
20200329033847 45 41 2.0 7.0 0.00 0.86 0.86 96 1013.8
20200329033830 45 41 2.0 7.0 0.00 0.86 0.86 96 1043.8
20200329033808 45 45 2.0 7.0 0.00 0.86 0.86 96 1043.8
20200329033709 45 46 2.0 7.0 0.00 0.86 0.86 96 1043.8
20200329033609 45 34 2.0 7.0 0.00 0.86 0.86 96 1043.7
20200329033509 45 25 2.0 7.0 0.00 0.86 0.86 96 1043.8
20200329033407 46 53 1.0 6.0 0.00 0.86 0.86 96 1043.9
20200329033348 46 40 4.0 6.0 0.00 0.86 0.86 96 1013.9
20200329033331 46 40 1.0 6.0 0.00 0.86 0.86 96 1043.9
20200329033309 46 46 1.0 5.0 0.00 0.86 0.86 96 1043.9
20200329033207 46 49 1.0 5.0 0.00 0.86 0.86 96 1044.0
20200329033108 46 342 1.0 3.0 0.00 0.86 0.86 96 1044.1
20200329033009 46 340 1.0 5.0 0.00 0.86 0.86 96 1044.1
20200329032909 46 317 1.0 5.0 0.00 0.86 0.86 96 1044.1
20200329032848 46 316 1.0 5.0 0.00 0.86 0.86 96 1014.0
20200329032828 46 316 1.0 5.0 0.00 0.86 0.86 96 1044.0
20200329032809 46 328 1.0 5.0 0.00 0.86 0.86 96 1044.0
20200329032708 46 13 1.0 6.0 0.00 0.86 0.86 96 1043.8
20200329032607 46 14 2.0 8.0 0.00 0.86 0.86 96 1043.6
20200329032507 46 38 2.0 8.0 0.00 0.86 0.86 96 1043.5
20200329032409 46 34 2.0 8.0 0.00 0.86 0.86 96 1043.5
20200329032348 46 34 0.0 8.0 0.00 0.86 0.86 96 1013.5
20200329032308 46 34 2.0 8.0 0.00 0.86 0.86 96 1043.5
20200329032207 46 5 2.0 8.0 0.00 0.86 0.86 96 1043.5
20200329032106 46 36 2.0 8.0 0.00 0.86 0.86 96 1043.5
20200329032004 46 5 2.0 8.0 0.00 0.86 0.86 96 1043.6
20200329031906 46 342 3.0 8.0 0.00 0.86 0.86 96 1043.7
20200329031847 46 331 0.0 8.0 0.00 0.86 0.86 96 1013.7
20200329031804 46 331 3.0 8.0 0.00 0.86 0.86 96 1043.7
20200329031704 46 355 2.0 8.0 0.00 0.86 0.86 96 1043.7
20200329031604 46 5 2.0 5.0 0.00 0.86 0.86 96 1043.8
20200329031504 46 342 2.0 5.0 0.00 0.86 0.86 96 1043.8
20200329031405 46 17 2.0 5.0 0.00 0.86 0.86 96 1043.7
20200329031348 46 349 4.0 5.0 0.00 0.86 0.86 96 1013.6
20200329031329 46 355 2.0 5.0 0.00 0.86 0.86 96 1043.6
20200329031305 46 350 2.0 5.0 0.00 0.86 0.86 96 1043.6
20200329031205 46 340 2.0 5.0 0.00 0.86 0.86 96 1043.6
20200329031106 46 13 3.0 5.0 0.00 0.86 0.86 96 1043.5
20200329031005 46 46 2.0 5.0 0.00 0.86 0.86 96 1043.4
20200329030905 46 25 2.0 5.0 0.00 0.86 0.86 96 1043.4
20200329030848 46 46 1.0 5.0 0.00 0.86 0.86 96 1013.4
20200329030829 46 46 2.0 5.0 0.00 0.86 0.86 96 1043.4
20200329030816 46 47 2.0 5.0 0.00 0.86 0.86 96 1043.4
20200329030704 46 36 2.0 5.0 0.00 0.86 0.86 96 1043.3
20200329030603 46 15 2.0 5.0 0.00 0.86 0.86 96 1043.2
20200329030504 46 24 3.0 5.0 0.00 0.86 0.86 96 1043.0
20200329030403 46 25 3.0 6.0 0.00 0.86 0.86 96 1042.9
20200329030348 46 39 3.0 8.0 0.00 0.86 0.86 96 1012.8
20200329030327 46 39 3.0 8.0 0.00 0.86 0.86 96 1042.8
20200329030303 46 17 3.0 8.0 0.00 0.86 0.86 96 1042.8
20200329030204 46 55 3.0 8.0 0.00 0.86 0.86 96 1042.8
20200329030104 46 37 3.0 8.0 0.00 0.86 0.86 96 1042.9
20200329030004 46 37 3.0 8.0 0.00 0.86 0.86 96 1042.9
20200329025904 46 71 3.0 8.0 0.00 0.86 0.86 96 1042.8
20200329025848 46 71 1.0 8.0 0.00 0.86 0.86 96 1012.8
20200329025827 46 71 3.0 8.0 0.00 0.86 0.86 96 1042.8
20200329025804 46 44 3.0 8.0 0.00 0.86 0.86 96 1042.8
20200329025702 46 45 3.0 8.0 0.01 0.86 0.86 96 1042.7
20200329025602 46 49 3.0 8.0 0.01 0.86 0.86 96 1042.7
20200329025500 46 37 3.0 8.0 0.01 0.86 0.86 96 1042.6
20200329025401 46 54 3.0 8.0 0.01 0.86 0.86 96 1042.6
20200329025347 46 38 3.0 7.0 0.01 0.86 0.86 96 1012.6
20200329025327 46 62 2.0 8.0 0.01 0.86 0.86 96 1042.6
20200329025259 46 44 2.0 8.0 0.01 0.86 0.86 96 1042.6
20200329025159 46 77 2.0 7.0 0.01 0.86 0.86 96 1042.6
20200329025059 46 50 2.0 7.0 0.01 0.86 0.86 96 1042.8
20200329024958 46 50 2.0 7.0 0.01 0.86 0.86 96 1043.0
20200329024859 46 47 2.0 7.0 0.01 0.86 0.86 96 1043.2
20200329024847 46 54 0.0 7.0 0.01 0.86 0.86 96 1013.3
20200329024827 46 50 2.0 7.0 0.01 0.86 0.86 96 1043.3
20200329024758 46 46 2.0 7.0 0.01 0.86 0.86 96 1043.3
20200329024659 46 42 2.0 7.0 0.01 0.86 0.86 96 1043.2
20200329024602 46 22 2.0 7.0 0.01 0.86 0.86 96 1043.2
20200329024503 46 17 2.0 7.0 0.01 0.86 0.86 96 1043.1
20200329024423 46 27 2.0 5.0 0.01 0.86 0.86 96 1043.0
20200329024348 46 35 4.0 5.0 0.01 0.86 0.86 96 1013.0
20200329024326 46 35 2.0 5.0 0.01 0.86 0.86 96 1043.0
20200329024259 46 19 2.0 4.0 0.01 0.86 0.86 96 1043.0
20200329024159 46 23 1.0 4.0 0.01 0.86 0.86 96 1042.9
20200329024100 46 40 2.0 3.0 0.01 0.86 0.86 96 1043.0
20200329024000 46 40 2.0 3.0 0.01 0.86 0.86 96 1043.0
20200329023900 46 40 2.0 4.0 0.01 0.86 0.86 96 1042.9
20200329023848 46 40 1.0 4.0 0.01 0.86 0.86 97 1012.9
20200329023825 46 40 2.0 4.0 0.01 0.86 0.86 97 1042.9
20200329023800 46 40 2.0 4.0 0.01 0.86 0.86 97 1042.9
20200329023700 46 40 2.0 4.0 0.01 0.86 0.86 97 1042.9
20200329023559 46 36 2.0 4.0 0.01 0.86 0.86 97 1043.0
20200329023459 46 21 2.0 4.0 0.01 0.86 0.86 97 1043.0
20200329023359 46 9 2.0 4.0 0.01 0.86 0.86 96 1043.0
20200329023347 46 5 1.0 4.0 0.01 0.86 0.86 96 1013.0
20200329023326 46 5 2.0 4.0 0.01 0.86 0.86 96 1043.0
20200329023258 46 5 2.0 4.0 0.01 0.86 0.86 96 1043.0
20200329023159 46 5 2.0 4.0 0.01 0.86 0.86 96 1043.0
20200329023058 46 9 2.0 4.0 0.01 0.86 0.86 96 1043.0
20200329023000 46 17 2.0 4.0 0.01 0.86 0.86 96 1042.8
20200329022856 46 36 2.0 4.0 0.01 0.86 0.86 96 1042.8
20200329022847 46 50 3.0 4.0 0.01 0.86 0.86 96 1012.8
20200329022826 46 50 2.0 4.0 0.01 0.86 0.86 96 1042.8
20200329022754 46 28 2.0 4.0 0.01 0.86 0.86 96 1042.8
20200329022656 46 54 2.0 4.0 0.01 0.86 0.86 96 1042.7
20200329022555 46 51 1.0 4.0 0.01 0.86 0.86 96 1042.8
20200329022455 46 51 1.0 4.0 0.01 0.86 0.86 96 1042.8
20200329022355 46 65 2.0 6.0 0.01 0.86 0.86 96 1042.9
20200329022347 46 57 1.0 6.0 0.01 0.86 0.86 96 1012.9
20200329022325 46 57 2.0 6.0 0.01 0.86 0.86 96 1042.9
20200329022255 46 67 2.0 6.0 0.01 0.86 0.86 96 1042.9
20200329022152 46 56 2.0 6.0 0.01 0.86 0.86 96 1042.9
20200329022052 46 44 2.0 6.0 0.01 0.86 0.86 96 1042.9
20200329021951 46 5 1.0 6.0 0.01 0.86 0.86 96 1042.9
20200329021851 46 40 1.0 6.0 0.01 0.86 0.86 96 1042.9
20200329021847 46 150 1.0 6.0 0.01 0.86 0.86 96 1012.8
20200329021822 46 150 1.0 6.0 0.02 0.86 0.86 96 1042.8
20200329021751 46 150 1.0 6.0 0.02 0.86 0.86 96 1042.8
20200329021652 46 150 1.0 6.0 0.02 0.86 0.86 96 1042.8
20200329021553 46 150 1.0 6.0 0.02 0.86 0.86 96 1042.8
20200329021451 46 80 1.0 6.0 0.02 0.86 0.86 96 1042.9
20200329021350 46 73 1.0 4.0 0.03 0.86 0.86 96 1042.8
20200329021347 46 76 3.0 4.0 0.03 0.86 0.86 96 1012.8
20200329021320 46 73 1.0 4.0 0.03 0.86 0.86 96 1042.8
20200329021251 46 98 1.0 4.0 0.03 0.86 0.86 96 1042.8
20200329021151 46 98 0.0 4.0 0.03 0.86 0.86 96 1042.8
20200329021052 46 74 0.0 3.0 0.03 0.86 0.86 96 1042.9
20200329020952 46 99 0.0 3.0 0.03 0.86 0.86 96 1042.9
20200329020850 46 99 0.0 3.0 0.03 0.86 0.86 96 1043.0
20200329020848 46 99 0.0 3.0 0.03 0.86 0.86 96 1013.0
20200329020820 46 99 0.0 3.0 0.03 0.86 0.86 96 1043.0
20200329020751 46 99 0.0 3.0 0.03 0.86 0.86 96 1043.0
20200329020651 46 99 1.0 4.0 0.03 0.86 0.86 96 1043.0
20200329020551 46 100 1.0 9.0 0.03 0.86 0.86 96 1043.1
20200329020451 46 100 1.0 9.0 0.03 0.86 0.86 96 1043.2
20200329020351 46 100 2.0 9.0 0.03 0.86 0.86 96 1043.2
20200329020347 46 100 0.0 9.0 0.03 0.86 0.86 96 1013.3
20200329020321 46 100 2.0 9.0 0.03 0.86 0.86 96 1043.3
20200329020251 46 99 2.0 9.0 0.03 0.86 0.86 96 1043.3
20200329020151 46 77 2.0 9.0 0.03 0.86 0.86 96 1043.3
20200329020051 46 77 2.0 9.0 0.03 0.86 0.86 96 1043.3
20200329015952 46 101 2.0 9.0 0.03 0.86 0.86 96 1043.4
20200329015847 46 101 0.0 9.0 0.03 0.86 0.86 96 1013.5
20200329015821 46 101 2.0 9.0 0.03 0.86 0.86 96 1043.5
20200329015752 46 92 2.0 9.0 0.03 0.86 0.86 96 1043.5
20200329015651 46 24 2.0 9.0 0.02 0.85 0.86 96 1043.4
20200329015549 46 76 2.0 7.0 0.02 0.85 0.85 96 1043.3
20200329015449 46 46 2.0 7.0 0.02 0.85 0.85 96 1043.1
20200329015350 46 32 2.0 7.0 0.02 0.85 0.85 96 1043.1
20200329015348 46 28 2.0 7.0 0.02 0.85 0.85 96 1013.2
20200329015318 46 28 2.0 7.0 0.03 0.85 0.85 96 1043.2
20200329015250 46 60 2.0 7.0 0.03 0.85 0.85 96 1043.2
20200329015149 46 67 2.0 8.0 0.03 0.85 0.85 96 1043.2
20200329015051 46 90 2.0 8.0 0.03 0.85 0.85 96 1043.2
20200329015006 46 90 2.0 8.0 0.03 0.85 0.85 96 1043.3
20200329014852 46 85 2.0 8.0 0.04 0.85 0.85 96 1043.3
20200329014848 46 108 2.0 8.0 0.03 0.85 0.85 96 1013.3
20200329014817 46 100 2.0 8.0 0.04 0.85 0.85 96 1043.3
20200329014750 46 76 2.0 8.0 0.04 0.85 0.85 96 1043.3
20200329014650 46 60 2.0 8.0 0.04 0.85 0.85 96 1043.2
20200329014546 46 55 2.0 8.0 0.04 0.85 0.85 96 1043.2
20200329014447 46 67 2.0 8.0 0.04 0.85 0.85 96 1043.2
20200329014347 46 90 3.0 8.0 0.05 0.85 0.85 96 1013.6
20200329014317 46 67 1.0 8.0 0.05 0.85 0.85 96 1043.6
20200329014246 46 94 1.0 8.0 0.05 0.85 0.85 96 1043.6
20200329014146 46 48 1.0 4.0 0.05 0.85 0.85 96 1043.8
20200329014046 46 49 1.0 4.0 0.06 0.85 0.85 96 1044.0
20200329013946 46 55 1.0 4.0 0.06 0.85 0.85 96 1044.0
20200329013848 46 69 0.0 4.0 0.06 0.85 0.85 96 1014.2
20200329013846 46 69 1.0 4.0 0.06 0.85 0.85 96 1044.1
20200329013814 46 69 1.0 4.0 0.06 0.85 0.85 96 1044.2
20200329013746 46 68 1.0 4.0 0.06 0.85 0.85 96 1044.2
20200329013646 46 73 1.0 4.0 0.06 0.85 0.85 96 1044.3
20200329013544 46 77 1.0 4.0 0.06 0.85 0.85 96 1044.4
20200329013444 46 73 1.0 4.0 0.06 0.85 0.85 96 1044.5
20200329013348 46 46 0.0 3.0 0.06 0.85 0.85 96 1014.4
20200329013346 46 55 1.0 4.0 0.06 0.85 0.85 96 1044.5
20200329013316 46 27 1.0 4.0 0.06 0.85 0.85 96 1044.4
20200329013243 46 67 1.0 4.0 0.06 0.85 0.85 96 1044.4
20200329013144 46 44 1.0 3.0 0.06 0.85 0.85 96 1044.3
20200329013044 46 59 1.0 3.0 0.06 0.85 0.85 96 1044.3
20200329012944 46 73 1.0 2.0 0.07 0.85 0.85 96 1044.4
20200329012848 46 59 0.0 2.0 0.07 0.85 0.85 96 1014.4
20200329012843 46 56 0.0 2.0 0.07 0.85 0.85 96 1044.4
20200329012813 46 59 0.0 2.0 0.07 0.85 0.85 96 1044.4
20200329012744 46 59 0.0 2.0 0.07 0.85 0.85 96 1044.4
20200329012644 46 45 0.0 2.0 0.07 0.85 0.85 96 1044.4
20200329012544 46 51 0.0 2.0 0.07 0.85 0.85 96 1044.5
20200329012444 46 343 0.0 1.0 0.07 0.85 0.85 96 1044.7
20200329012348 46 342 0.0 1.0 0.07 0.85 0.85 96 1014.8
20200329012344 46 342 0.0 1.0 0.07 0.85 0.85 96 1044.8
20200329012312 46 342 0.0 1.0 0.07 0.85 0.85 96 1044.8
20200329012245 46 342 0.0 1.0 0.07 0.85 0.85 96 1044.8
20200329012144 46 342 0.0 1.0 0.07 0.85 0.85 96 1044.8
20200329012045 46 342 0.0 2.0 0.07 0.85 0.85 96 1044.9
20200329011942 46 342 0.0 2.0 0.07 0.85 0.85 96 1045.0
20200329011848 46 342 0.0 2.0 0.08 0.85 0.85 96 1015.2
20200329011843 46 342 0.0 2.0 0.08 0.85 0.85 96 1045.1
20200329011809 46 342 0.0 2.0 0.07 0.84 0.85 96 1045.2
20200329011743 46 342 0.0 2.0 0.07 0.84 0.84 96 1045.2
20200329011643 46 342 0.0 2.0 0.07 0.84 0.84 96 1045.2
20200329011540 46 342 0.0 2.0 0.07 0.84 0.84 96 1045.2
20200329011439 46 342 0.0 2.0 0.07 0.84 0.84 96 1045.2
20200329011347 46 342 0.0 2.0 0.06 0.83 0.83 96 1015.0
20200329011339 46 342 0.0 2.0 0.06 0.83 0.83 96 1045.1
20200329011308 46 342 0.0 2.0 0.06 0.83 0.83 96 1045.0
20200329011240 46 342 0.0 2.0 0.06 0.83 0.83 96 1045.0
20200329011140 46 342 0.0 2.0 0.06 0.83 0.83 96 1045.2
20200329011040 46 342 0.0 1.0 0.06 0.83 0.83 96 1045.7
20200329010939 46 342 0.0 1.0 0.06 0.83 0.83 96 1045.9
20200329010848 46 342 0.0 1.0 0.06 0.83 0.83 96 1015.8
20200329010838 46 342 0.0 1.0 0.06 0.83 0.83 96 1045.9
20200329010806 46 342 0.0 1.0 0.06 0.83 0.83 96 1045.8
20200329010738 46 342 0.0 1.0 0.06 0.83 0.83 96 1045.8
20200329010638 46 342 0.0 1.0 0.06 0.83 0.83 96 1045.6
20200329010535 46 342 0.0 1.0 0.06 0.83 0.83 96 1045.5
20200329010433 46 342 0.0 1.0 0.06 0.83 0.83 96 1045.4
20200329010347 46 342 0.0 1.0 0.06 0.83 0.83 96 1015.2
20200329010333 46 342 0.0 1.0 0.06 0.83 0.83 96 1045.3
20200329010304 46 342 0.0 1.0 0.06 0.83 0.83 96 1045.2
20200329010234 46 342 0.0 1.0 0.06 0.83 0.83 96 1045.2
20200329010132 46 342 0.0 1.0 0.06 0.83 0.83 96 1045.2
20200329010032 46 342 0.0 0.0 0.06 0.83 0.83 96 1045.1
20200329005933 46 342 0.0 0.0 0.06 0.83 0.83 96 1045.0
20200329005848 46 342 0.0 0.0 0.06 0.83 0.83 96 1014.9
20200329005804 46 342 0.0 0.0 0.06 0.83 0.83 96 1044.9
20200329005733 46 342 0.0 0.0 0.06 0.83 0.83 96 1044.9
20200329005633 46 342 0.0 0.0 0.07 0.83 0.83 96 1044.8
20200329005533 46 342 0.0 0.0 0.07 0.83 0.83 96 1044.9
20200329005432 46 342 0.0 0.0 0.07 0.83 0.83 96 1045.0
20200329005348 46 342 0.0 0.0 0.07 0.83 0.83 96 1015.1
20200329005304 46 342 0.0 0.0 0.06 0.82 0.83 96 1045.1
20200329005233 46 342 0.0 0.0 0.06 0.82 0.82 96 1045.1
20200329005133 46 342 0.0 0.0 0.06 0.82 0.82 96 1045.2
20200329005033 46 342 0.0 0.0 0.06 0.82 0.82 96 1045.3
20200329004933 46 342 0.0 0.0 0.06 0.82 0.82 96 1045.3
20200329004847 46 342 0.0 0.0 0.06 0.82 0.82 96 1015.3
20200329004830 46 342 0.0 0.0 0.05 0.81 0.82 96 1045.3
20200329004800 46 342 0.0 0.0 0.05 0.81 0.81 96 1045.3
20200329004735 46 342 0.0 0.0 0.05 0.81 0.81 96 1045.4
20200329004652 46 342 0.0 0.0 0.05 0.81 0.81 96 1045.5
20200329004533 46 342 0.0 0.0 0.05 0.81 0.81 96 1045.6
20200329004431 46 342 0.0 1.0 0.04 0.80 0.81 96 1045.6
20200329004348 46 342 0.0 2.0 0.04 0.80 0.80 96 1015.5
20200329004330 46 342 0.0 2.0 0.04 0.80 0.80 96 1045.5
20200329004231 46 342 0.0 2.0 0.04 0.80 0.80 96 1045.5
20200329004132 46 342 0.0 2.0 0.03 0.79 0.80 96 1045.5
20200329004031 46 342 0.0 2.0 0.03 0.79 0.79 96 1045.5
20200329003930 46 342 0.0 2.0 0.03 0.79 0.79 96 1045.5
20200329003848 46 342 0.0 2.0 0.03 0.79 0.79 96 1015.5
20200329003831 46 342 0.0 2.0 0.03 0.79 0.79 96 1045.5
20200329003800 46 342 0.0 2.0 0.03 0.79 0.79 96 1045.5
20200329003731 46 342 0.0 2.0 0.03 0.79 0.79 96 1045.6
20200329003630 46 342 0.0 2.0 0.03 0.79 0.79 96 1045.6
20200329003530 46 340 0.0 2.0 0.03 0.79 0.79 96 1045.6
20200329003429 46 340 0.0 2.0 0.03 0.79 0.79 96 1045.6
20200329003348 46 54 0.0 2.0 0.03 0.79 0.79 96 1015.5
20200329003330 46 54 0.0 2.0 0.03 0.79 0.79 96 1045.5
20200329003303 46 54 0.0 3.0 0.03 0.79 0.79 96 1045.5
20200329003228 46 54 0.0 3.0 0.03 0.79 0.79 96 1045.3
20200329003128 46 54 0.0 3.0 0.03 0.79 0.79 96 1045.3
20200329003027 46 54 0.0 3.0 0.04 0.79 0.79 96 1045.3
20200329002928 46 54 0.0 3.0 0.03 0.78 0.79 96 1045.3
20200329002848 46 54 0.0 3.0 0.03 0.78 0.78 96 1015.2
20200329002828 46 54 0.0 3.0 0.03 0.78 0.78 96 1045.2
20200329002802 46 54 0.0 3.0 0.03 0.78 0.78 96 1045.2
20200329002728 46 54 0.0 3.0 0.03 0.78 0.78 96 1045.1
20200329002628 46 54 0.0 3.0 0.03 0.78 0.78 96 1045.0
20200329002528 46 54 0.0 3.0 0.03 0.78 0.78 96 1045.0
20200329002428 46 54 0.0 3.0 0.03 0.78 0.78 96 1045.0
20200329002348 46 55 2.0 3.0 0.03 0.78 0.78 96 1015.1
20200329002328 46 55 0.0 3.0 0.03 0.78 0.78 96 1045.1
20200329002259 46 65 0.0 3.0 0.03 0.78 0.78 96 1045.1
20200329002228 46 65 0.0 3.0 0.03 0.78 0.78 96 1045.0
20200329002128 46 65 0.0 3.0 0.03 0.78 0.78 96 1045.0
20200329002028 46 65 0.0 3.0 0.03 0.78 0.78 96 1044.8
20200329001928 46 65 0.0 3.0 0.03 0.78 0.78 96 1044.8
20200329001848 46 58 0.0 3.0 0.02 0.77 0.77 96 1014.7
20200329001827 46 58 0.0 3.0 0.02 0.77 0.77 96 1044.7
20200329001759 46 58 0.0 3.0 0.02 0.77 0.77 96 1044.7
20200329001727 46 58 0.0 3.0 0.02 0.77 0.77 96 1044.7
20200329001627 46 58 0.0 3.0 0.02 0.77 0.77 96 1044.8
20200329001523 46 58 0.0 3.0 0.02 0.77 0.77 96 1044.8
20200329001424 46 15 1.0 3.0 0.03 0.77 0.77 96 1044.9
20200329001348 46 13 0.0 3.0 0.03 0.77 0.77 96 1014.8
20200329001324 46 13 1.0 3.0 0.03 0.77 0.77 96 1044.8
20200329001258 46 13 1.0 3.0 0.03 0.77 0.77 96 1044.8
20200329001223 46 13 1.0 3.0 0.03 0.77 0.77 96 1044.9
20200329001124 46 13 1.0 3.0 0.03 0.77 0.77 96 1044.9
20200329001024 46 13 1.0 3.0 0.03 0.77 0.77 96 1044.9
20200329000925 46 13 1.0 3.0 0.04 0.77 0.77 96 1044.8
20200329000848 46 13 0.0 3.0 0.04 0.77 0.77 96 1014.7
20200329000823 46 13 1.0 3.0 0.04 0.77 0.77 96 1044.7
20200329000759 46 13 1.0 3.0 0.04 0.77 0.77 96 1044.7
20200329000722 46 15 1.0 3.0 0.04 0.77 0.77 96 1044.6
20200329000623 46 35 1.0 3.0 0.04 0.77 0.77 96 1044.6
20200329000523 46 35 1.0 3.0 0.04 0.77 0.77 96 1044.6
20200329000423 46 35 1.0 3.0 0.04 0.77 0.77 96 1044.6
20200329000348 46 33 0.0 3.0 0.04 0.77 0.77 96 1014.5
20200329000323 46 33 1.0 3.0 0.04 0.77 0.77 96 1044.5
20200329000257 46 32 1.0 3.0 0.04 0.77 0.77 96 1044.5
20200329000220 46 54 1.0 4.0 0.04 0.77 0.77 96 1044.6
20200329000119 46 25 1.0 4.0 0.04 0.77 0.77 96 1044.7
20200329000020 46 5 1.0 4.0 0.04 0.77 0.77 96 1044.7
20200328235919 46 22 1.0 4.0 0.05 0.77 0.77 96 1044.7
20200328235848 46 22 0.0 4.0 0.04 0.77 0.77 96 1014.7
20200328235819 46 22 1.0 4.0 0.05 0.77 0.77 96 1044.7
20200328235757 46 22 1.0 4.0 0.05 0.77 0.77 96 1044.7
20200328235719 46 22 1.0 4.0 0.05 0.77 0.77 96 1044.8
20200328235617 46 22 1.0 4.0 0.04 0.76 0.76 96 1044.8
20200328235517 46 333 1.0 4.0 0.04 0.76 0.76 96 1044.8
20200328235416 46 355 1.0 4.0 0.04 0.76 0.76 96 1044.7
20200328235348 46 20 1.0 4.0 0.04 0.76 0.76 96 1014.6
20200328235314 46 20 1.0 4.0 0.04 0.76 0.76 96 1044.6
20200328235256 46 20 1.0 4.0 0.04 0.76 0.76 96 1044.6
20200328235214 46 34 0.0 3.0 0.05 0.76 0.76 96 1044.5
20200328235115 46 42 0.0 3.0 0.05 0.76 0.76 96 1044.5
20200328235016 46 42 0.0 3.0 0.05 0.76 0.76 96 1044.5
20200328234915 46 42 0.0 3.0 0.05 0.76 0.76 96 1044.5
20200328234848 46 42 0.0 3.0 0.05 0.76 0.76 96 1014.5
20200328234815 46 42 0.0 3.0 0.05 0.76 0.76 96 1044.5
20200328234751 46 42 0.0 3.0 0.05 0.76 0.76 96 1044.5
20200328234716 46 42 0.0 3.0 0.05 0.76 0.76 96 1044.5
20200328234612 46 42 0.0 3.0 0.05 0.76 0.76 96 1044.5
20200328234510 46 42 0.0 3.0 0.05 0.76 0.76 96 1044.5
20200328234410 47 5 0.0 3.0 0.05 0.76 0.76 96 1044.5
20200328234348 47 5 0.0 3.0 0.05 0.76 0.76 96 1014.5
20200328234311 46 351 0.0 3.0 0.05 0.76 0.76 96 1044.5
20200328234252 47 333 0.0 3.0 0.05 0.76 0.76 96 1044.5
20200328234210 47 333 0.0 3.0 0.05 0.76 0.76 96 1044.6
20200328234111 47 333 0.0 3.0 0.05 0.76 0.76 96 1044.7
20200328234010 47 333 0.0 3.0 0.05 0.76 0.76 96 1044.7
20200328233909 47 333 0.0 3.0 0.05 0.76 0.76 96 1044.6
20200328233848 47 333 0.0 3.0 0.05 0.76 0.76 96 1014.5
20200328233811 47 333 1.0 3.0 0.05 0.76 0.76 96 1044.5
20200328233751 47 333 1.0 3.0 0.05 0.76 0.76 96 1044.5
20200328233709 47 333 1.0 3.0 0.05 0.76 0.76 96 1044.4
20200328233609 47 333 1.0 6.0 0.06 0.76 0.76 96 1044.4
20200328233509 47 333 1.0 7.0 0.06 0.76 0.76 96 1044.4
20200328233410 47 0 1.0 7.0 0.06 0.76 0.76 96 1044.4
20200328233348 47 42 0.0 7.0 0.06 0.76 0.76 96 1014.3
20200328233310 47 42 1.0 7.0 0.06 0.76 0.76 96 1044.3
20200328233252 47 42 1.0 7.0 0.06 0.76 0.76 96 1044.3
20200328233207 47 42 1.0 7.0 0.06 0.76 0.76 96 1044.2
20200328233108 47 43 2.0 7.0 0.06 0.76 0.76 96 1044.2
20200328233010 47 43 2.0 7.0 0.05 0.75 0.75 96 1044.2
20200328232908 47 43 2.0 7.0 0.05 0.75 0.75 96 1044.2
20200328232848 47 42 2.0 7.0 0.05 0.75 0.75 96 1014.2
20200328232804 47 37 2.0 7.0 0.05 0.75 0.75 96 1044.2
20200328232751 47 34 2.0 7.0 0.06 0.75 0.75 96 1044.2
20200328232706 47 41 2.0 7.0 0.06 0.75 0.75 96 1044.2
20200328232604 47 58 2.0 7.0 0.06 0.75 0.75 96 1044.3
20200328232504 47 38 1.0 5.0 0.06 0.75 0.75 96 1044.3
20200328232404 47 19 2.0 5.0 0.06 0.75 0.75 96 1044.3
20200328232348 47 19 1.0 5.0 0.06 0.75 0.75 96 1014.2
20200328232304 47 9 2.0 5.0 0.06 0.75 0.75 96 1044.2
20200328232249 47 32 2.0 5.0 0.06 0.75 0.75 96 1044.2
20200328232204 47 19 2.0 5.0 0.06 0.75 0.75 96 1044.1
20200328232104 47 19 2.0 6.0 0.06 0.75 0.75 96 1044.0
20200328232005 47 46 3.0 11.0 0.06 0.75 0.75 96 1043.9
20200328231904 47 53 3.0 11.0 0.06 0.75 0.75 96 1043.9
20200328231848 47 40 3.0 11.0 0.06 0.75 0.75 96 1013.9
20200328231804 47 42 3.0 11.0 0.06 0.75 0.75 96 1043.9
20200328231749 47 59 3.0 11.0 0.06 0.75 0.75 96 1043.9
20200328231704 47 64 4.0 11.0 0.06 0.75 0.75 96 1043.9
20200328231603 47 53 4.0 11.0 0.06 0.75 0.75 96 1043.9
20200328231504 47 48 5.0 11.0 0.06 0.75 0.75 96 1043.8
20200328231403 47 56 5.0 11.0 0.06 0.74 0.75 96 1043.6
20200328231348 47 46 3.0 11.0 0.06 0.74 0.74 96 1013.5
20200328231303 47 23 5.0 11.0 0.06 0.74 0.74 96 1043.5
20200328231247 47 23 5.0 11.0 0.06 0.74 0.74 96 1043.5
20200328231203 47 28 5.0 11.0 0.06 0.74 0.74 96 1043.2
20200328231102 47 84 6.0 11.0 0.06 0.74 0.74 96 1043.1
20200328231003 47 47 6.0 11.0 0.05 0.73 0.74 96 1043.0
20200328230903 47 40 5.0 11.0 0.05 0.73 0.73 96 1042.9
20200328230848 47 42 6.0 11.0 0.05 0.73 0.73 96 1012.7
20200328230801 47 76 5.0 11.0 0.05 0.73 0.73 96 1042.7
20200328230747 47 74 5.0 11.0 0.05 0.73 0.73 96 1042.7
20200328230701 47 46 5.0 11.0 0.05 0.73 0.73 96 1042.7
20200328230602 47 64 5.0 11.0 0.05 0.73 0.73 96 1042.9
20200328230501 47 51 4.0 11.0 0.05 0.73 0.73 96 1043.0
20200328230401 47 79 4.0 9.0 0.05 0.73 0.73 96 1043.1
20200328230348 47 57 3.0 9.0 0.05 0.73 0.73 96 1013.2
20200328230301 47 65 4.0 9.0 0.05 0.73 0.73 96 1043.2
20200328230247 47 56 4.0 9.0 0.05 0.73 0.73 96 1043.2
20200328230201 47 40 3.0 9.0 0.05 0.73 0.73 96 1043.4
20200328230131 47 51 3.0 9.0 0.05 0.73 0.73 96 1043.6
20200328230003 47 45 3.0 9.0 0.05 0.73 0.73 96 1043.8
20200328225901 47 32 3.0 9.0 0.04 0.72 0.73 96 1044.0
20200328225848 47 40 4.0 9.0 0.05 0.73 0.73 96 1014.0
20200328225801 47 50 2.0 9.0 0.04 0.72 0.72 96 1044.0
20200328225745 47 48 2.0 9.0 0.04 0.72 0.72 96 1044.0
20200328225700 47 100 2.0 9.0 0.04 0.72 0.72 96 1044.1
20200328225559 47 71 2.0 9.0 0.04 0.72 0.72 96 1044.1
20200328225459 47 73 2.0 7.0 0.04 0.72 0.72 96 1044.1
20200328225359 47 92 2.0 7.0 0.04 0.72 0.72 96 1044.0
20200328225348 47 92 0.0 7.0 0.04 0.72 0.72 96 1014.1
20200328225258 47 74 2.0 7.0 0.04 0.72 0.72 96 1044.0
20200328225245 47 105 2.0 7.0 0.04 0.72 0.72 96 1044.0
20200328225159 47 97 2.0 7.0 0.03 0.71 0.71 96 1044.0
20200328225059 47 91 2.0 7.0 0.03 0.71 0.71 96 1044.2
20200328224958 47 90 2.0 7.0 0.03 0.71 0.71 96 1044.2
20200328224900 47 66 2.0 6.0 0.03 0.71 0.71 96 1044.4
20200328224848 47 66 1.0 5.0 0.04 0.71 0.71 96 1014.7
20200328224745 47 65 2.0 6.0 0.04 0.71 0.71 96 1044.6
20200328224659 47 66 1.0 6.0 0.04 0.71 0.71 96 1044.5
20200328224559 47 82 1.0 6.0 0.04 0.71 0.71 96 1044.4
20200328224459 47 99 1.0 6.0 0.04 0.71 0.71 96 1044.3
20200328224400 47 109 1.0 6.0 0.04 0.71 0.71 96 1044.4
20200328224348 47 107 2.0 5.0 0.04 0.71 0.71 96 1014.6
20200328224243 47 84 1.0 6.0 0.04 0.71 0.71 96 1044.5
20200328224158 47 82 1.0 6.0 0.04 0.71 0.71 96 1044.7
20200328224058 47 84 1.0 6.0 0.04 0.71 0.71 96 1044.8
20200328223959 47 85 1.0 5.0 0.04 0.71 0.71 96 1044.8
20200328223858 47 43 1.0 5.0 0.04 0.71 0.71 96 1044.8
20200328223848 47 43 0.0 5.0 0.04 0.71 0.71 96 1015.0
20200328223745 47 43 1.0 5.0 0.04 0.71 0.71 96 1044.9
20200328223658 47 43 2.0 6.0 0.04 0.71 0.71 96 1045.0
20200328223558 47 43 2.0 6.0 0.03 0.70 0.70 96 1045.0
20200328223459 47 43 2.0 6.0 0.03 0.70 0.70 96 1044.9
20200328223355 47 42 3.0 9.0 0.03 0.70 0.70 96 1044.7
20200328223348 47 42 0.0 9.0 0.03 0.70 0.70 96 1014.6
20200328223242 47 42 3.0 9.0 0.03 0.70 0.70 96 1044.5
20200328223154 47 77 3.0 9.0 0.03 0.70 0.70 96 1044.3
20200328223056 47 54 3.0 9.0 0.03 0.70 0.70 96 1044.2
20200328222955 47 86 3.0 9.0 0.03 0.70 0.70 96 1044.2
20200328222856 47 59 3.0 9.0 0.03 0.70 0.70 96 1044.2
20200328222848 47 65 2.0 9.0 0.03 0.70 0.70 96 1014.3
20200328222754 47 57 3.0 9.0 0.02 0.69 0.70 96 1044.2
20200328222741 47 52 3.0 9.0 0.02 0.69 0.70 96 1044.2
20200328222655 47 107 2.0 9.0 0.02 0.69 0.69 96 1044.0
20200328222554 47 95 2.0 9.0 0.02 0.69 0.69 96 1043.9
20200328222454 47 96 2.0 9.0 0.02 0.69 0.69 96 1043.9
20200328222355 47 104 1.0 8.0 0.02 0.69 0.69 96 1044.1
20200328222348 47 81 3.0 4.0 0.02 0.69 0.69 96 1014.4
20200328222253 47 90 1.0 4.0 0.02 0.69 0.69 96 1044.3
20200328222241 47 84 1.0 4.0 0.02 0.69 0.69 96 1044.3
20200328222154 47 83 1.0 4.0 0.02 0.69 0.69 96 1044.5
20200328222055 47 53 1.0 3.0 0.02 0.69 0.69 96 1044.6
20200328221953 47 38 1.0 3.0 0.02 0.69 0.69 96 1044.6
20200328221853 47 38 1.0 3.0 0.02 0.69 0.69 96 1044.7
20200328221848 47 38 2.0 3.0 0.02 0.69 0.69 96 1014.8
20200328221754 47 71 1.0 3.0 0.02 0.69 0.69 96 1044.7
20200328221741 47 98 1.0 3.0 0.02 0.69 0.69 96 1044.7
20200328221653 47 46 1.0 3.0 0.02 0.69 0.69 96 1044.8
20200328221554 47 46 1.0 3.0 0.02 0.69 0.69 96 1044.8
20200328221454 47 46 1.0 3.0 0.02 0.69 0.69 96 1044.8
20200328221354 47 46 1.0 3.0 0.01 0.68 0.69 96 1044.8
20200328221348 47 46 1.0 3.0 0.01 0.68 0.68 96 1014.9
20200328221250 47 49 1.0 3.0 0.01 0.68 0.68 96 1044.8
20200328221240 47 50 1.0 3.0 0.01 0.68 0.68 96 1044.8
20200328221150 47 32 0.0 3.0 0.01 0.68 0.68 96 1044.8
20200328221050 47 32 0.0 3.0 0.01 0.68 0.68 96 1044.7
20200328220949 47 73 0.0 2.0 0.01 0.68 0.68 96 1044.7
20200328220850 47 73 0.0 2.0 0.01 0.68 0.68 96 1044.7
20200328220848 47 73 0.0 2.0 0.01 0.68 0.68 96 1014.7
20200328220740 47 73 0.0 2.0 0.01 0.68 0.68 96 1044.6
20200328220650 47 73 0.0 2.0 0.01 0.68 0.68 96 1044.5
20200328220548 47 73 0.0 3.0 0.01 0.68 0.68 96 1044.5
20200328220450 47 73 1.0 5.0 0.01 0.68 0.68 96 1044.4
20200328220350 47 73 1.0 5.0 0.01 0.68 0.68 96 1044.3
20200328220348 47 73 0.0 5.0 0.01 0.68 0.68 96 1014.3
20200328220238 47 73 1.0 5.0 0.01 0.68 0.68 96 1044.2
20200328220145 47 73 1.0 8.0 0.01 0.68 0.68 96 1044.2
20200328220047 47 73 1.0 8.0 0.01 0.68 0.68 96 1044.2
20200328215945 47 73 1.0 8.0 0.01 0.68 0.68 96 1044.3
20200328215848 47 73 0.0 5.0 0.01 0.68 0.68 96 1014.5
20200328215844 47 73 1.0 8.0 0.01 0.68 0.68 96 1044.4
20200328215738 47 73 1.0 8.0 0.01 0.68 0.68 96 1044.4
20200328215643 47 69 1.0 8.0 0.01 0.68 0.68 96 1044.3
20200328215543 47 106 1.0 8.0 0.01 0.68 0.68 96 1044.2
20200328215443 47 49 1.0 8.0 0.01 0.68 0.68 96 1044.1
20200328215348 47 63 0.0 5.0 0.01 0.68 0.68 96 1014.1
20200328215344 47 63 1.0 8.0 0.01 0.68 0.68 96 1044.1
20200328215238 47 63 2.0 8.0 0.01 0.68 0.68 96 1044.0
20200328215144 47 62 2.0 8.0 0.01 0.68 0.68 96 1043.9
20200328215044 47 61 2.0 8.0 0.01 0.68 0.68 96 1043.9
20200328214944 47 60 2.0 9.0 0.01 0.68 0.68 96 1044.1
20200328214848 47 61 2.0 8.0 0.00 0.67 0.67 96 1014.4
20200328214844 47 60 2.0 9.0 0.00 0.67 0.67 96 1044.2
20200328214744 47 82 2.0 9.0 0.00 0.67 0.67 95 1044.3
20200328214738 47 82 2.0 9.0 0.00 0.67 0.67 95 1044.3
20200328214643 47 82 3.0 9.0 0.00 0.67 0.67 95 1044.3
20200328214543 47 82 3.0 9.0 0.00 0.67 0.67 95 1044.3
20200328214440 47 122 3.0 9.0 0.00 0.67 0.67 95 1044.3
20200328214348 47 125 3.0 8.0 0.00 0.67 0.67 95 1014.3
20200328214339 47 125 3.0 9.0 0.00 0.67 0.67 95 1044.2
20200328214242 47 86 3.0 9.0 0.00 0.67 0.67 95 1044.2
20200328214235 47 130 3.0 9.0 0.00 0.67 0.67 95 1044.2
20200328214139 47 63 3.0 10.0 0.00 0.67 0.67 95 1044.2
20200328214040 47 79 4.0 10.0 0.00 0.67 0.67 95 1044.1
20200328213938 46 80 3.0 10.0 0.00 0.67 0.67 95 1044.0
20200328213848 46 62 1.0 10.0 0.00 0.67 0.67 95 1014.0
20200328213838 46 62 4.0 10.0 0.00 0.67 0.67 95 1044.0
20200328213736 46 78 4.0 10.0 0.00 0.67 0.67 95 1044.0
20200328213638 46 91 4.0 10.0 0.00 0.67 0.67 95 1044.0
20200328213538 46 96 4.0 10.0 0.00 0.67 0.67 95 1044.0
20200328213437 46 86 4.0 10.0 0.00 0.67 0.67 95 1044.0
20200328213348 46 112 3.0 11.0 0.00 0.67 0.67 95 1013.7
20200328213337 46 111 4.0 11.0 0.00 0.67 0.67 95 1043.8
20200328213236 46 82 4.0 11.0 0.00 0.67 0.67 95 1043.7
20200328213136 46 93 4.0 11.0 0.00 0.67 0.67 95 1043.7
20200328213036 46 92 4.0 11.0 0.00 0.67 0.67 95 1043.8
20200328212935 46 99 4.0 11.0 0.00 0.67 0.67 95 1043.8
20200328212848 46 117 8.0 11.0 0.00 0.67 0.67 95 1013.4
20200328212835 46 118 4.0 11.0 0.00 0.67 0.67 95 1043.5
20200328212737 46 73 4.0 11.0 0.00 0.67 0.67 95 1043.4
20200328212635 46 71 3.0 11.0 0.00 0.67 0.67 95 1043.5
20200328212535 46 97 3.0 11.0 0.00 0.67 0.67 95 1043.6
20200328212434 46 69 3.0 11.0 0.00 0.67 0.67 95 1043.7
20200328212348 46 99 7.0 9.0 0.00 0.67 0.67 95 1013.5
20200328212334 46 91 3.0 9.0 0.00 0.67 0.67 95 1043.5
20200328212237 46 144 3.0 9.0 0.00 0.67 0.67 95 1043.5
20200328212135 46 99 3.0 9.0 0.00 0.67 0.67 95 1043.4
20200328212035 46 113 3.0 9.0 0.00 0.67 0.67 95 1043.4
20200328211935 46 80 3.0 7.0 0.00 0.67 0.67 95 1043.4
20200328211848 46 89 0.0 7.0 0.00 0.67 0.67 95 1013.7
20200328211836 46 89 3.0 7.0 0.00 0.67 0.67 95 1043.6
20200328211736 46 89 3.0 7.0 0.00 0.67 0.67 95 1043.7
20200328211634 46 89 3.0 7.0 0.00 0.67 0.67 95 1043.7
20200328211535 46 117 3.0 7.0 0.00 0.67 0.67 95 1043.6
20200328211435 46 54 3.0 7.0 0.00 0.67 0.67 95 1043.5
20200328211348 46 63 3.0 7.0 0.00 0.67 0.67 95 1013.6
20200328211335 46 63 3.0 7.0 0.01 0.67 0.67 95 1043.5
20200328211234 46 54 3.0 9.0 0.01 0.67 0.67 95 1043.6
20200328211135 46 96 3.0 9.0 0.01 0.67 0.67 95 1043.7
20200328211033 46 92 3.0 9.0 0.01 0.67 0.67 95 1043.8
20200328210934 46 51 3.0 9.0 0.01 0.67 0.67 95 1043.9
20200328210848 46 37 3.0 9.0 0.01 0.67 0.67 95 1013.8
20200328210834 46 37 3.0 9.0 0.01 0.67 0.67 95 1043.9
20200328210735 46 82 3.0 9.0 0.01 0.67 0.67 95 1043.8
20200328210634 46 67 3.0 9.0 0.01 0.67 0.67 95 1043.6
20200328210534 46 34 3.0 9.0 0.01 0.67 0.67 95 1043.6
20200328210432 46 88 3.0 9.0 0.01 0.67 0.67 95 1043.5
20200328210348 46 72 5.0 9.0 0.01 0.67 0.67 95 1013.6
20200328210332 46 68 3.0 9.0 0.01 0.67 0.67 95 1043.4
20200328210233 46 83 3.0 8.0 0.01 0.67 0.67 95 1043.6
20200328210132 46 83 3.0 8.0 0.01 0.67 0.67 95 1043.7
20200328210032 46 57 3.0 8.0 0.01 0.67 0.67 95 1043.7
20200328205934 46 55 3.0 8.0 0.01 0.67 0.67 95 1043.8
20200328205848 46 74 3.0 8.0 0.01 0.67 0.67 95 1013.8
20200328205833 46 44 3.0 8.0 0.01 0.67 0.67 95 1043.8
20200328205733 46 96 3.0 8.0 0.01 0.67 0.67 95 1043.8
20200328205632 46 85 4.0 8.0 0.01 0.67 0.67 95 1043.9
20200328205532 46 60 4.0 10.0 0.01 0.67 0.67 95 1043.9
20200328205430 46 35 4.0 10.0 0.01 0.67 0.67 95 1043.9
20200328205348 46 74 3.0 10.0 0.01 0.67 0.67 95 1014.0
20200328205330 46 72 4.0 10.0 0.01 0.67 0.67 95 1043.9
20200328205232 46 47 4.0 10.0 0.01 0.67 0.67 95 1043.9
20200328205130 46 48 5.0 10.0 0.01 0.67 0.67 95 1043.9
20200328205030 46 96 5.0 11.0 0.01 0.67 0.67 95 1043.9
20200328204932 46 86 5.0 11.0 0.01 0.67 0.67 95 1043.9
20200328204848 46 30 4.0 11.0 0.01 0.67 0.67 95 1014.0
20200328204831 46 30 5.0 11.0 0.01 0.67 0.67 95 1043.9
20200328204732 46 75 5.0 11.0 0.01 0.67 0.67 95 1043.8
20200328204631 46 86 5.0 11.0 0.01 0.67 0.67 95 1043.7
20200328204529 46 67 5.0 11.0 0.01 0.67 0.67 95 1043.7
20200328204429 46 82 5.0 11.0 0.01 0.67 0.67 95 1043.7
20200328204348 46 65 4.0 11.0 0.01 0.67 0.67 95 1013.8
20200328204330 46 65 5.0 11.0 0.01 0.67 0.67 95 1043.7
20200328204231 46 144 5.0 11.0 0.01 0.67 0.67 95 1043.7
20200328204129 46 103 4.0 11.0 0.01 0.67 0.67 95 1043.7
20200328204029 46 96 4.0 10.0 0.01 0.67 0.67 95 1043.7
20200328203930 46 82 4.0 9.0 0.01 0.67 0.67 95 1043.7
20200328203848 46 98 6.0 9.0 0.01 0.67 0.67 95 1013.7
20200328203830 46 121 4.0 9.0 0.01 0.67 0.67 95 1043.6
20200328203729 46 88 4.0 9.0 0.01 0.67 0.67 95 1043.6
20200328203630 47 88 4.0 9.0 0.01 0.67 0.67 95 1043.7
20200328203530 47 77 4.0 8.0 0.01 0.67 0.67 95 1043.7
20200328203432 46 88 4.0 8.0 0.01 0.67 0.67 95 1043.8
20200328203348 47 77 4.0 8.0 0.01 0.67 0.67 95 1014.0
20200328203331 47 77 4.0 8.0 0.01 0.67 0.67 95 1043.9
20200328203234 46 77 4.0 8.0 0.01 0.67 0.67 95 1044.0
20200328203228 46 78 4.0 8.0 0.01 0.67 0.67 95 1044.0
20200328203131 47 90 4.0 9.0 0.01 0.67 0.67 94 1044.1
20200328203031 47 74 4.0 9.0 0.01 0.67 0.67 94 1044.2
20200328202931 46 92 4.0 9.0 0.01 0.67 0.67 94 1044.3
20200328202848 46 123 5.0 9.0 0.01 0.67 0.67 94 1014.4
20200328202831 46 116 4.0 9.0 0.01 0.67 0.67 94 1044.3
20200328202734 47 63 4.0 10.0 0.01 0.67 0.67 94 1044.4
20200328202728 47 98 4.0 10.0 0.01 0.67 0.67 94 1044.4
20200328202631 46 23 4.0 10.0 0.01 0.67 0.67 94 1044.4
20200328202531 46 60 5.0 10.0 0.01 0.67 0.67 94 1044.4
20200328202429 46 71 6.0 15.0 0.01 0.67 0.67 94 1044.3
20200328202348 47 63 2.0 15.0 0.01 0.67 0.67 94 1014.3
20200328202330 47 63 6.0 15.0 0.01 0.67 0.67 94 1044.2
20200328202233 47 49 6.0 16.0 0.01 0.67 0.67 94 1044.2
20200328202227 47 71 6.0 16.0 0.01 0.67 0.67 94 1044.2
20200328202129 47 86 6.0 16.0 0.01 0.67 0.67 94 1044.3
20200328202029 47 104 6.0 16.0 0.01 0.67 0.67 94 1044.3
20200328201930 47 82 5.0 16.0 0.01 0.67 0.67 94 1044.3
20200328201848 47 104 9.0 16.0 0.01 0.67 0.67 94 1014.4
20200328201829 47 86 5.0 16.0 0.01 0.67 0.67 94 1044.3
20200328201732 47 35 5.0 16.0 0.01 0.67 0.67 94 1044.3
20200328201727 47 36 5.0 16.0 0.01 0.67 0.67 94 1044.3
20200328201629 47 94 5.0 16.0 0.01 0.67 0.67 94 1044.2
20200328201529 47 55 5.0 16.0 0.01 0.67 0.67 94 1044.1
20200328201430 47 44 4.0 16.0 0.01 0.67 0.67 94 1044.0
20200328201348 47 58 9.0 16.0 0.01 0.67 0.67 94 1014.1
20200328201326 47 58 4.0 16.0 0.00 0.66 0.67 94 1044.0
20200328201228 47 63 4.0 10.0 0.00 0.66 0.66 94 1044.0
20200328201127 47 55 4.0 10.0 0.00 0.66 0.66 94 1044.0
20200328201027 47 63 4.0 10.0 0.00 0.66 0.66 94 1044.0
20200328200926 47 46 4.0 10.0 0.00 0.66 0.66 94 1044.0
20200328200848 47 75 4.0 10.0 0.00 0.66 0.66 94 1014.2
20200328200827 47 75 5.0 10.0 0.00 0.66 0.66 94 1044.1
20200328200728 47 82 5.0 13.0 0.00 0.66 0.66 94 1044.1
20200328200627 47 107 5.0 13.0 0.00 0.66 0.66 94 1044.0
20200328200527 47 60 5.0 13.0 0.00 0.66 0.66 94 1044.0
20200328200427 47 109 5.0 13.0 0.00 0.66 0.66 94 1044.1
20200328200348 47 103 6.0 13.0 0.00 0.66 0.66 94 1014.2
20200328200327 47 103 5.0 13.0 0.00 0.66 0.66 94 1044.1
20200328200228 47 45 5.0 13.0 0.00 0.66 0.66 94 1044.1
20200328200127 47 51 5.0 13.0 0.00 0.66 0.66 94 1044.0
20200328200027 47 82 5.0 13.0 0.00 0.66 0.66 95 1044.0
20200328195926 47 92 5.0 13.0 0.00 0.66 0.66 95 1044.0
20200328195848 47 67 4.0 13.0 0.00 0.66 0.66 95 1014.2
20200328195826 47 67 4.0 13.0 0.00 0.66 0.66 95 1044.1
20200328195728 47 69 4.0 11.0 0.00 0.66 0.66 95 1044.1
20200328195626 47 55 5.0 11.0 0.00 0.66 0.66 95 1044.1
20200328195527 47 72 5.0 12.0 0.00 0.66 0.66 95 1044.1
20200328195426 47 110 5.0 12.0 0.00 0.66 0.66 95 1044.1
20200328195348 47 61 4.0 12.0 0.00 0.66 0.66 95 1014.1
20200328195326 47 59 5.0 12.0 0.00 0.66 0.66 95 1044.0
20200328195228 47 22 5.0 12.0 0.00 0.66 0.66 95 1044.0
20200328195127 47 36 5.0 12.0 0.00 0.66 0.66 95 1044.0
20200328195026 47 71 5.0 12.0 0.00 0.66 0.66 95 1043.9
20200328194926 47 95 5.0 12.0 0.00 0.66 0.66 95 1043.8
20200328194848 47 44 3.0 12.0 0.00 0.66 0.66 95 1013.9
20200328194825 47 44 5.0 12.0 0.00 0.66 0.66 95 1043.8
20200328194726 47 70 5.0 12.0 0.00 0.66 0.66 95 1043.7
20200328194625 47 53 5.0 12.0 0.00 0.66 0.66 95 1043.7
20200328194526 47 71 4.0 11.0 0.00 0.66 0.66 95 1043.7
20200328194425 47 84 5.0 10.0 0.00 0.66 0.66 95 1043.7
20200328194348 47 76 5.0 10.0 0.00 0.66 0.66 95 1013.9
20200328194323 47 58 4.0 10.0 0.00 0.66 0.66 95 1043.8
20200328194223 47 84 4.0 10.0 0.00 0.66 0.66 95 1043.7
20200328194124 47 61 4.0 10.0 0.01 0.66 0.66 95 1043.8
20200328194024 47 85 4.0 10.0 0.01 0.66 0.66 95 1043.7
20200328193923 47 106 4.0 10.0 0.01 0.66 0.66 95 1043.8
20200328193856 47 117 2.0 10.0 0.01 0.66 0.66 95 1014.0
20200328193825 47 117 4.0 10.0 0.01 0.66 0.66 95 1043.9
20200328193804 47 90 4.0 10.0 0.01 0.66 0.66 95 1043.9
20200328193638 47 57 4.0 10.0 0.01 0.66 0.66 95 1043.9
20200328193527 47 126 4.0 10.0 0.01 0.66 0.66 95 1043.9
20200328193419 47 63 4.0 11.0 0.01 0.66 0.66 95 1043.8
20200328193348 47 85 7.0 12.0 0.01 0.66 0.66 95 1013.8
20200328193321 47 72 4.0 12.0 0.01 0.66 0.66 95 1043.7
20200328193220 47 66 4.0 12.0 0.01 0.66 0.66 95 1043.8
20200328193119 47 103 5.0 12.0 0.01 0.66 0.66 95 1043.9
20200328193020 47 95 5.0 12.0 0.01 0.66 0.66 95 1044.0
20200328192920 47 50 5.0 12.0 0.01 0.66 0.66 95 1044.0
20200328192848 47 105 7.0 12.0 0.01 0.66 0.66 95 1014.1
20200328192818 47 103 5.0 12.0 0.01 0.66 0.66 95 1044.0
20200328192725 47 82 5.0 12.0 0.01 0.66 0.66 95 1044.0
20200328192718 47 80 5.0 12.0 0.01 0.66 0.66 95 1044.0
20200328192620 47 91 5.0 12.0 0.01 0.66 0.66 95 1044.0
20200328192517 47 94 5.0 12.0 0.01 0.66 0.66 95 1044.1
20200328192417 47 84 5.0 12.0 0.01 0.66 0.66 95 1044.1
20200328192348 47 66 4.0 10.0 0.01 0.66 0.66 95 1014.2
20200328192316 47 84 5.0 10.0 0.01 0.66 0.66 95 1044.1
20200328192224 47 38 5.0 10.0 0.01 0.66 0.66 95 1044.1
20200328192217 47 99 5.0 10.0 0.01 0.66 0.66 95 1044.1
20200328192115 47 61 5.0 11.0 0.01 0.66 0.66 95 1044.0
20200328192015 47 92 5.0 11.0 0.01 0.66 0.66 95 1043.9
20200328191915 47 71 4.0 11.0 0.01 0.66 0.66 95 1043.8
20200328191848 47 84 5.0 11.0 0.01 0.66 0.66 95 1013.8
20200328191816 47 69 4.0 11.0 0.01 0.66 0.66 95 1043.7
20200328191722 47 49 5.0 11.0 0.01 0.66 0.66 95 1043.6
20200328191715 47 34 5.0 11.0 0.01 0.66 0.66 95 1043.6
20200328191614 47 24 5.0 11.0 0.01 0.66 0.66 95 1043.5
20200328191514 47 115 5.0 11.0 0.01 0.66 0.66 95 1043.5
20200328191415 47 89 5.0 11.0 0.01 0.66 0.66 95 1043.6
20200328191348 47 44 3.0 11.0 0.01 0.66 0.66 95 1013.7
20200328191313 47 81 5.0 11.0 0.01 0.66 0.66 95 1043.6
20200328191223 47 52 5.0 11.0 0.01 0.66 0.66 95 1043.8
20200328191213 47 57 5.0 11.0 0.01 0.66 0.66 95 1043.8
20200328191113 47 87 5.0 11.0 0.01 0.66 0.66 95 1043.8
20200328191013 47 95 5.0 11.0 0.01 0.66 0.66 95 1043.9
20200328190913 47 38 5.0 11.0 0.01 0.66 0.66 95 1044.0
20200328190848 47 80 5.0 10.0 0.01 0.66 0.66 95 1014.2
20200328190813 47 46 5.0 11.0 0.01 0.66 0.66 95 1044.1
20200328190724 47 105 4.0 11.0 0.01 0.66 0.66 95 1044.1
20200328190712 47 79 4.0 11.0 0.01 0.66 0.66 95 1044.1
20200328190613 47 71 4.0 9.0 0.01 0.66 0.66 95 1044.1
20200328190513 47 75 4.0 9.0 0.01 0.66 0.66 95 1044.2
20200328190413 47 92 4.0 9.0 0.01 0.66 0.66 95 1044.1
20200328190348 47 111 4.0 9.0 0.01 0.66 0.66 95 1014.3
20200328190313 47 93 4.0 9.0 0.01 0.66 0.66 95 1044.2
20200328190213 47 71 4.0 9.0 0.01 0.66 0.66 95 1044.3
20200328190114 47 82 4.0 9.0 0.01 0.66 0.66 95 1044.4
20200328190014 47 113 4.0 9.0 0.02 0.66 0.66 95 1044.5
20200328185914 47 55 4.0 9.0 0.02 0.66 0.66 95 1044.5
20200328185848 47 55 4.0 9.0 0.02 0.66 0.66 95 1014.6
20200328185814 47 81 4.0 9.0 0.02 0.66 0.66 95 1044.5
20200328185711 47 63 4.0 9.0 0.02 0.66 0.66 95 1044.5
20200328185702 47 78 4.0 9.0 0.03 0.66 0.66 95 1044.6
20200328185512 47 66 4.0 9.0 0.03 0.66 0.66 95 1044.6
20200328185412 47 61 4.0 9.0 0.03 0.66 0.66 95 1044.6
20200328185348 47 44 3.0 9.0 0.03 0.66 0.66 95 1014.7
20200328185311 47 42 4.0 9.0 0.04 0.66 0.66 95 1044.6
20200328185219 47 82 4.0 9.0 0.05 0.66 0.66 95 1044.6
20200328185212 47 59 4.0 9.0 0.05 0.66 0.66 95 1044.6
20200328185113 47 78 4.0 8.0 0.05 0.66 0.66 95 1044.6
20200328185011 47 93 4.0 8.0 0.05 0.66 0.66 95 1044.6
20200328184911 47 90 4.0 8.0 0.05 0.66 0.66 95 1044.6
20200328184848 47 71 2.0 8.0 0.05 0.66 0.66 95 1014.7
20200328184811 47 71 4.0 8.0 0.05 0.66 0.66 95 1044.6
20200328184713 47 65 4.0 8.0 0.05 0.66 0.66 95 1044.7
20200328184612 47 63 3.0 8.0 0.05 0.66 0.66 95 1044.7
20200328184512 47 57 3.0 8.0 0.05 0.66 0.66 95 1044.8
20200328184411 47 46 3.0 8.0 0.05 0.66 0.66 95 1044.9
20200328184348 47 46 2.0 8.0 0.05 0.66 0.66 95 1015.0
20200328184312 47 41 3.0 8.0 0.05 0.66 0.66 95 1044.9
20200328184219 47 44 3.0 8.0 0.05 0.66 0.66 95 1045.0
20200328184212 47 44 3.0 8.0 0.05 0.66 0.66 95 1045.0
20200328184112 47 66 3.0 6.0 0.05 0.65 0.66 95 1045.0
20200328184011 47 57 3.0 5.0 0.05 0.65 0.65 95 1044.9
20200328183912 47 70 3.0 6.0 0.05 0.65 0.65 95 1045.0
20200328183848 47 49 3.0 6.0 0.05 0.65 0.65 95 1015.1
20200328183811 47 80 2.0 6.0 0.05 0.65 0.65 95 1045.0
20200328183722 47 61 3.0 6.0 0.05 0.65 0.65 95 1044.9
20200328183710 47 47 3.0 6.0 0.05 0.65 0.65 95 1044.9
20200328183611 47 47 2.0 6.0 0.05 0.65 0.65 95 1045.0
20200328183511 47 57 3.0 6.0 0.05 0.65 0.65 95 1045.0
20200328183410 47 71 3.0 6.0 0.06 0.65 0.65 95 1045.0
20200328183348 47 71 2.0 6.0 0.06 0.65 0.65 95 1015.1
20200328183309 47 71 2.0 6.0 0.06 0.65 0.65 95 1045.0
20200328183209 47 69 2.0 6.0 0.06 0.65 0.65 95 1045.0
20200328183111 47 63 2.0 6.0 0.06 0.65 0.65 95 1045.1
20200328183011 47 80 2.0 6.0 0.07 0.65 0.65 95 1045.1
20200328182910 47 94 2.0 6.0 0.08 0.65 0.65 95 1045.0
20200328182848 47 94 2.0 6.0 0.08 0.65 0.65 95 1015.1
20200328182809 47 94 2.0 6.0 0.08 0.65 0.65 95 1045.0
20200328182717 47 92 2.0 6.0 0.09 0.65 0.65 95 1045.0
20200328182710 47 80 2.0 6.0 0.09 0.65 0.65 95 1045.0
20200328182610 47 66 2.0 4.0 0.09 0.65 0.65 95 1045.1
20200328182509 47 67 2.0 7.0 0.10 0.65 0.65 95 1045.2
20200328182410 47 52 3.0 7.0 0.10 0.65 0.65 95 1045.3
20200328182348 47 48 2.0 7.0 0.10 0.65 0.65 95 1015.5
20200328182310 47 39 3.0 9.0 0.10 0.65 0.65 95 1045.4
20200328182220 47 39 3.0 9.0 0.10 0.65 0.65 95 1045.5
20200328182208 47 38 3.0 9.0 0.10 0.65 0.65 95 1045.5
20200328182108 47 39 3.0 9.0 0.10 0.65 0.65 95 1045.5
20200328182010 47 39 3.0 9.0 0.10 0.65 0.65 95 1045.6
20200328181908 47 65 3.0 9.0 0.10 0.65 0.65 95 1045.6
20200328181848 47 64 2.0 9.0 0.10 0.65 0.65 95 1015.7
20200328181808 47 64 4.0 9.0 0.10 0.65 0.65 95 1045.6
20200328181707 47 52 4.0 9.0 0.10 0.65 0.65 95 1045.6
20200328181608 47 77 3.0 9.0 0.10 0.65 0.65 95 1045.5
20200328181509 47 64 3.0 9.0 0.10 0.65 0.65 95 1045.4
20200328181409 47 72 3.0 9.0 0.10 0.65 0.65 95 1045.4
20200328181348 47 81 5.0 9.0 0.10 0.65 0.65 95 1015.5
20200328181309 47 76 3.0 7.0 0.10 0.65 0.65 95 1045.4
20200328181209 47 58 3.0 7.0 0.10 0.65 0.65 95 1045.4
20200328181109 46 131 3.0 7.0 0.10 0.65 0.65 95 1045.3
20200328181008 47 131 3.0 7.0 0.10 0.65 0.65 95 1045.2
20200328180909 46 88 3.0 7.0 0.10 0.65 0.65 95 1045.3
20200328180848 46 103 3.0 7.0 0.10 0.65 0.65 95 1015.5
20200328180808 46 98 3.0 7.0 0.10 0.65 0.65 95 1045.4
20200328180716 46 52 3.0 6.0 0.11 0.65 0.65 95 1045.5
20200328180707 46 65 3.0 6.0 0.11 0.65 0.65 95 1045.5
20200328180605 46 34 3.0 6.0 0.11 0.65 0.65 95 1045.6
20200328180506 46 54 3.0 7.0 0.11 0.65 0.65 95 1045.6
20200328180406 46 60 3.0 7.0 0.11 0.65 0.65 95 1045.6
20200328180348 46 60 3.0 7.0 0.11 0.65 0.65 95 1015.8
20200328180305 46 62 3.0 7.0 0.12 0.65 0.65 95 1045.7
20200328180215 46 61 3.0 7.0 0.12 0.65 0.65 95 1045.7
20200328180205 46 61 3.0 7.0 0.12 0.65 0.65 95 1045.7
20200328180106 46 73 3.0 7.0 0.12 0.65 0.65 95 1045.7
20200328180005 46 76 3.0 7.0 0.11 0.64 0.65 95 1045.7
20200328175906 46 80 3.0 7.0 0.11 0.64 0.64 95 1045.6
20200328175848 46 81 2.0 7.0 0.11 0.64 0.64 95 1015.7
20200328175803 46 83 3.0 7.0 0.11 0.64 0.64 95 1045.6
20200328175714 46 61 3.0 7.0 0.11 0.64 0.64 95 1045.5
20200328175704 46 46 3.0 7.0 0.10 0.63 0.64 95 1045.5
20200328175601 46 88 3.0 7.0 0.10 0.63 0.63 95 1045.4
20200328175500 46 84 2.0 7.0 0.10 0.63 0.63 95 1045.4
20200328175401 46 94 2.0 7.0 0.10 0.63 0.63 95 1045.3
20200328175348 46 99 2.0 7.0 0.10 0.63 0.63 95 1015.3
20200328175301 46 90 2.0 7.0 0.10 0.62 0.63 95 1045.3
20200328175213 46 82 2.0 7.0 0.09 0.61 0.62 95 1045.4
20200328175201 46 76 2.0 7.0 0.09 0.61 0.62 95 1045.4
20200328175104 46 71 2.0 7.0 0.09 0.61 0.61 95 1045.5
20200328175007 46 101 2.0 8.0 0.09 0.61 0.61 95 1045.6
20200328174901 46 87 2.0 8.0 0.09 0.61 0.61 95 1045.6
20200328174848 46 86 2.0 8.0 0.09 0.61 0.61 95 1015.7
20200328174801 46 62 2.0 8.0 0.09 0.61 0.61 95 1045.7
20200328174713 46 67 2.0 8.0 0.09 0.61 0.61 95 1045.6
20200328174700 46 67 2.0 8.0 0.09 0.61 0.61 95 1045.6
20200328174601 46 67 3.0 8.0 0.09 0.61 0.61 95 1045.6
20200328174501 46 93 3.0 8.0 0.09 0.61 0.61 95 1045.6
20200328174401 46 93 3.0 8.0 0.10 0.61 0.61 95 1045.5
20200328174348 46 92 1.0 8.0 0.10 0.61 0.61 95 1015.5
20200328174301 46 92 3.0 8.0 0.10 0.61 0.61 95 1045.5
20200328174214 46 93 3.0 8.0 0.10 0.61 0.61 95 1045.4
20200328174202 46 93 3.0 8.0 0.09 0.60 0.61 95 1045.4
20200328174102 46 113 3.0 8.0 0.09 0.60 0.60 95 1045.5
20200328174002 46 81 3.0 7.0 0.09 0.60 0.60 95 1045.5
20200328173902 46 82 3.0 7.0 0.09 0.60 0.60 95 1045.5
20200328173848 46 122 3.0 8.0 0.09 0.60 0.60 95 1015.6
20200328173802 46 126 3.0 8.0 0.09 0.60 0.60 95 1045.6
20200328173714 46 45 3.0 8.0 0.09 0.60 0.60 95 1045.6
20200328173702 46 96 3.0 8.0 0.09 0.60 0.60 95 1045.6
20200328173601 46 82 3.0 12.0 0.09 0.60 0.60 95 1045.6
20200328173502 46 144 3.0 12.0 0.09 0.60 0.60 95 1045.6
20200328173402 46 95 4.0 12.0 0.08 0.59 0.59 94 1045.6
20200328173348 46 94 3.0 12.0 0.08 0.59 0.59 94 1015.6
20200328173302 46 108 4.0 12.0 0.09 0.59 0.59 94 1045.6
20200328173214 46 109 4.0 12.0 0.09 0.59 0.59 94 1045.6
20200328173202 46 123 4.0 12.0 0.09 0.59 0.59 94 1045.6
20200328173102 46 74 5.0 12.0 0.09 0.59 0.59 94 1045.6
20200328173003 46 49 5.0 13.0 0.09 0.58 0.59 94 1045.7
20200328172902 46 105 5.0 13.0 0.08 0.57 0.58 94 1045.7
20200328172848 46 158 5.0 13.0 0.08 0.57 0.57 94 1015.7
20200328172802 46 134 5.0 13.0 0.08 0.57 0.57 94 1045.7
20200328172714 46 89 6.0 16.0 0.07 0.56 0.57 94 1045.7
20200328172702 46 89 6.0 16.0 0.07 0.56 0.57 94 1045.7
20200328172602 46 78 6.0 16.0 0.08 0.56 0.56 94 1045.7
20200328172501 46 133 6.0 16.0 0.07 0.55 0.55 94 1045.7
20200328172401 46 88 6.0 16.0 0.08 0.55 0.55 94 1045.7
20200328172348 46 71 5.0 15.0 0.07 0.55 0.55 94 1015.7
20200328172303 46 86 6.0 16.0 0.08 0.55 0.55 94 1045.7
20200328172214 46 118 6.0 16.0 0.08 0.55 0.55 94 1045.8
20200328172202 46 118 6.0 16.0 0.08 0.55 0.55 94 1045.8
20200328172102 46 94 6.0 16.0 0.08 0.55 0.55 95 1045.6
20200328172002 46 95 6.0 16.0 0.09 0.55 0.55 95 1045.6
20200328171902 46 119 6.0 16.0 0.09 0.55 0.55 95 1045.6
20200328171848 46 165 5.0 15.0 0.09 0.55 0.55 95 1015.5
20200328171802 46 178 6.0 16.0 0.10 0.55 0.55 95 1045.5
20200328171714 46 123 5.0 15.0 0.10 0.55 0.55 95 1045.5
20200328171702 46 167 5.0 15.0 0.10 0.55 0.55 95 1045.5
20200328171602 46 71 5.0 10.0 0.10 0.55 0.55 95 1045.5
20200328171503 46 88 4.0 10.0 0.11 0.55 0.55 95 1045.7
20200328171402 46 128 4.0 10.0 0.12 0.55 0.55 95 1045.7
20200328171348 46 142 4.0 10.0 0.11 0.55 0.55 95 1015.7
20200328171302 46 124 4.0 10.0 0.12 0.55 0.55 95 1045.7
20200328171214 46 102 4.0 10.0 0.13 0.55 0.55 95 1045.7
20200328171201 46 108 4.0 10.0 0.13 0.55 0.55 95 1045.7
20200328171101 46 92 3.0 10.0 0.13 0.55 0.55 95 1045.8
20200328171002 46 101 3.0 9.0 0.14 0.55 0.55 95 1046.0
20200328170901 46 122 3.0 9.0 0.14 0.55 0.55 95 1046.0
20200328170848 46 67 3.0 9.0 0.14 0.55 0.55 95 1016.1
20200328170802 46 73 3.0 9.0 0.14 0.55 0.55 94 1046.1
20200328170714 46 175 3.0 8.0 0.13 0.54 0.55 94 1046.2
20200328170700 46 161 3.0 8.0 0.14 0.54 0.55 94 1046.2
20200328170601 46 117 3.0 9.0 0.14 0.54 0.54 94 1046.2
20200328170500 46 86 4.0 9.0 0.14 0.54 0.54 95 1046.2
20200328170402 46 122 4.0 9.0 0.14 0.54 0.54 94 1046.1
20200328170348 46 84 1.0 9.0 0.15 0.54 0.54 94 1016.0
20200328170301 46 84 4.0 9.0 0.14 0.53 0.53 94 1046.0
20200328170209 46 105 5.0 9.0 0.14 0.53 0.53 94 1046.0
20200328170200 46 105 5.0 9.0 0.14 0.53 0.53 94 1046.0
20200328170101 46 69 5.0 14.0 0.14 0.53 0.53 95 1045.9
20200328165959 46 90 5.0 14.0 0.14 0.53 0.53 94 1045.9
20200328165859 46 118 6.0 14.0 0.15 0.53 0.53 94 1045.9
20200328165848 46 118 0.0 14.0 0.14 0.53 0.53 95 1015.8
20200328165755 46 84 6.0 14.0 0.15 0.53 0.53 95 1045.8
20200328165710 46 71 6.0 14.0 0.15 0.53 0.53 95 1045.8
20200328165655 46 79 6.0 14.0 0.15 0.53 0.53 94 1045.8
20200328165554 46 84 6.0 14.0 0.15 0.53 0.53 94 1045.8
20200328165455 46 70 6.0 14.0 0.16 0.53 0.53 95 1046.0
20200328165355 46 79 6.0 14.0 0.16 0.53 0.53 95 1046.0
20200328165348 46 111 2.0 14.0 0.16 0.53 0.53 95 1015.8
20200328165255 46 101 6.0 14.0 0.15 0.52 0.53 95 1045.8
20200328165210 46 143 5.0 14.0 0.15 0.52 0.52 95 1045.7
20200328165154 46 79 5.0 14.0 0.15 0.52 0.52 95 1045.7
20200328165054 46 107 5.0 13.0 0.16 0.52 0.52 95 1045.5
20200328164956 46 74 4.0 11.0 0.16 0.52 0.52 95 1045.5
20200328164853 46 92 4.0 11.0 0.17 0.52 0.52 95 1045.5
20200328164848 46 96 8.0 11.0 0.17 0.52 0.52 95 1015.6
20200328164751 46 127 4.0 11.0 0.17 0.52 0.52 95 1045.6
20200328164711 46 94 4.0 11.0 0.17 0.52 0.52 95 1045.7
20200328164651 46 86 4.0 11.0 0.17 0.52 0.52 95 1045.7
20200328164551 46 80 4.0 11.0 0.17 0.52 0.52 95 1045.8
20200328164451 46 98 4.0 11.0 0.16 0.51 0.51 95 1045.9
20200328164352 46 48 3.0 11.0 0.17 0.51 0.51 95 1045.8
20200328164348 46 92 6.0 11.0 0.17 0.51 0.51 95 1015.9
20200328164251 46 92 3.0 11.0 0.17 0.51 0.51 95 1045.9
20200328164209 46 60 3.0 11.0 0.17 0.51 0.51 95 1046.0
20200328164151 46 52 3.0 11.0 0.17 0.51 0.51 95 1046.0
20200328164051 46 130 3.0 11.0 0.17 0.51 0.51 95 1046.1
20200328163952 46 108 3.0 11.0 0.17 0.51 0.51 95 1046.1
20200328163851 46 120 3.0 9.0 0.17 0.51 0.51 95 1046.2
20200328163848 46 134 2.0 8.0 0.17 0.51 0.51 95 1016.2
20200328163751 46 89 3.0 8.0 0.17 0.51 0.51 95 1046.2
20200328163709 46 123 3.0 8.0 0.18 0.51 0.51 95 1046.2
20200328163651 46 121 3.0 8.0 0.18 0.51 0.51 95 1046.2
20200328163552 46 79 3.0 8.0 0.18 0.51 0.51 95 1046.2
20200328163451 46 140 3.0 8.0 0.18 0.51 0.51 95 1046.1
20200328163350 45 132 3.0 8.0 0.18 0.51 0.51 95 1046.1
20200328163348 45 136 2.0 8.0 0.18 0.51 0.51 95 1016.0
20200328163249 45 118 2.0 8.0 0.17 0.50 0.50 95 1046.0
20200328163100 45 104 2.0 6.0 0.17 0.50 0.50 94 1046.1
20200328162950 45 101 3.0 7.0 0.16 0.49 0.49 94 1046.1
20200328162850 45 98 3.0 11.0 0.16 0.49 0.49 94 1046.2
20200328162848 45 106 3.0 11.0 0.16 0.49 0.49 94 1016.3
20200328162747 45 120 4.0 12.0 0.16 0.49 0.49 94 1046.3
20200328162707 45 120 4.0 12.0 0.16 0.49 0.49 94 1046.5
20200328162646 45 117 4.0 12.0 0.16 0.49 0.49 94 1046.5
20200328162547 45 129 4.0 12.0 0.15 0.48 0.49 94 1046.6
20200328162447 45 173 4.0 12.0 0.16 0.48 0.48 94 1046.6
20200328162348 45 172 1.0 12.0 0.16 0.48 0.48 94 1016.4
20200328162248 45 151 5.0 12.0 0.15 0.47 0.47 94 1046.4
20200328162209 45 53 5.0 12.0 0.15 0.47 0.47 94 1046.3
20200328162147 45 150 5.0 12.0 0.15 0.47 0.47 94 1046.3
20200328162047 45 84 5.0 12.0 0.15 0.47 0.47 94 1046.1
20200328161946 45 88 5.0 12.0 0.14 0.46 0.47 94 1045.8
20200328161848 45 140 7.0 12.0 0.14 0.46 0.46 94 1015.5
20200328161745 45 96 4.0 12.0 0.13 0.45 0.45 94 1045.5
20200328161709 45 129 4.0 11.0 0.13 0.45 0.45 94 1045.6
20200328161643 45 102 4.0 11.0 0.14 0.45 0.45 94 1045.6
20200328161543 45 109 3.0 9.0 0.13 0.44 0.45 94 1045.8
20200328161445 45 110 3.0 9.0 0.13 0.44 0.44 94 1046.1
20200328161348 45 101 3.0 8.0 0.13 0.44 0.44 94 1016.7
20200328161341 45 102 3.0 8.0 0.12 0.43 0.44 94 1046.4
20200328161240 45 104 2.0 8.0 0.12 0.43 0.43 94 1046.7
20200328161207 45 63 2.0 8.0 0.11 0.42 0.43 94 1046.9
20200328161137 45 66 2.0 8.0 0.12 0.42 0.43 94 1046.9
20200328161036 45 80 2.0 9.0 0.12 0.42 0.42 94 1047.1
20200328160936 45 148 2.0 9.0 0.11 0.41 0.42 94 1047.0
20200328160848 45 101 3.0 9.0 0.11 0.41 0.41 94 1016.9
20200328160836 45 93 2.0 9.0 0.11 0.41 0.41 94 1047.0
20200328160713 45 117 2.0 9.0 0.12 0.41 0.41 94 1046.9
20200328160635 45 117 2.0 9.0 0.11 0.40 0.41 94 1046.9
20200328160535 45 96 2.0 9.0 0.11 0.40 0.40 94 1046.9
20200328160436 45 82 3.0 10.0 0.11 0.40 0.40 94 1046.9
20200328160348 45 61 0.0 10.0 0.10 0.39 0.39 94 1016.7
20200328160335 45 61 3.0 11.0 0.11 0.40 0.40 94 1046.8
20200328160237 45 61 3.0 11.0 0.11 0.39 0.39 94 1046.7
20200328160208 45 78 4.0 11.0 0.11 0.39 0.39 94 1046.8
20200328160137 45 56 4.0 11.0 0.11 0.39 0.39 94 1046.8
20200328160036 45 64 4.0 11.0 0.11 0.39 0.39 94 1046.7
20200328155935 45 63 4.0 11.0 0.11 0.39 0.39 94 1046.7
20200328155848 45 84 1.0 10.0 0.11 0.39 0.39 94 1016.6
20200328155834 45 82 4.0 11.0 0.11 0.38 0.39 94 1046.6
20200328155735 45 85 5.0 11.0 0.11 0.38 0.38 94 1046.6
20200328155703 45 82 5.0 11.0 0.11 0.38 0.38 94 1046.6
20200328155632 45 78 5.0 11.0 0.11 0.38 0.38 94 1046.6
20200328155532 45 98 5.0 11.0 0.10 0.37 0.38 94 1046.4
20200328155432 45 70 6.0 13.0 0.10 0.37 0.37 94 1046.2
20200328155348 45 51 0.0 13.0 0.10 0.37 0.37 94 1015.8
20200328155332 45 51 6.0 13.0 0.10 0.37 0.37 94 1046.0
20200328155232 45 120 6.0 13.0 0.10 0.37 0.37 94 1045.8
20200328155204 46 34 6.0 13.0 0.10 0.37 0.37 94 1045.7
20200328155132 45 80 6.0 13.0 0.09 0.36 0.37 94 1045.7
20200328155032 46 49 6.0 13.0 0.09 0.36 0.36 94 1045.7
20200328154932 46 86 7.0 15.0 0.08 0.35 0.36 94 1045.7
20200328154848 46 88 8.0 15.0 0.08 0.35 0.35 94 1015.8
20200328154832 46 67 7.0 15.0 0.08 0.35 0.35 94 1045.7
20200328154731 46 29 7.0 15.0 0.08 0.35 0.35 94 1045.8
20200328154703 46 96 7.0 15.0 0.08 0.35 0.35 94 1045.9
20200328154632 46 136 7.0 15.0 0.08 0.35 0.35 94 1045.9
20200328154532 46 90 7.0 15.0 0.09 0.35 0.35 94 1045.8
20200328154431 46 98 7.0 15.0 0.08 0.34 0.35 94 1045.8
20200328154348 46 81 7.0 15.0 0.08 0.34 0.34 93 1015.7
20200328154331 46 78 6.0 15.0 0.08 0.34 0.34 93 1045.7
20200328154232 46 105 6.0 15.0 0.08 0.34 0.34 93 1045.7
20200328154203 46 90 6.0 15.0 0.08 0.34 0.34 93 1045.5
20200328154132 46 87 6.0 15.0 0.08 0.34 0.34 93 1045.5
20200328154031 46 68 6.0 15.0 0.08 0.34 0.34 94 1045.6
20200328153931 46 88 5.0 12.0 0.08 0.34 0.34 94 1045.7
20200328153848 46 77 10.0 10.0 0.08 0.34 0.34 94 1016.1
20200328153831 46 88 5.0 10.0 0.09 0.34 0.34 94 1045.9
20200328153731 46 80 5.0 10.0 0.09 0.34 0.34 94 1046.1
20200328153703 46 41 5.0 10.0 0.08 0.33 0.33 94 1046.3
20200328153631 46 34 5.0 10.0 0.08 0.33 0.33 94 1046.3
20200328153531 46 47 5.0 10.0 0.08 0.33 0.33 93 1046.5
20200328153432 46 60 5.0 10.0 0.08 0.33 0.33 93 1046.7
20200328153348 46 48 5.0 10.0 0.08 0.33 0.33 93 1016.8
20200328153331 46 29 5.0 10.0 0.09 0.33 0.33 93 1046.8
20200328153230 46 65 5.0 10.0 0.09 0.33 0.33 94 1046.8
20200328153203 46 90 5.0 10.0 0.10 0.33 0.33 93 1046.8
20200328153131 46 97 5.0 10.0 0.10 0.33 0.33 93 1046.8
20200328153031 46 84 5.0 10.0 0.10 0.33 0.33 93 1046.7
20200328152930 46 76 5.0 10.0 0.11 0.33 0.33 93 1046.7
20200328152848 46 99 8.0 9.0 0.11 0.33 0.33 93 1016.8
20200328152830 46 115 4.0 10.0 0.11 0.33 0.33 93 1046.7
20200328152729 46 96 4.0 10.0 0.12 0.33 0.33 93 1047.0
20200328152701 46 84 4.0 9.0 0.12 0.33 0.33 93 1047.0
20200328152628 46 60 4.0 9.0 0.12 0.33 0.33 93 1047.2
20200328152529 46 86 4.0 9.0 0.12 0.33 0.33 93 1047.3
20200328152429 46 90 3.0 9.0 0.11 0.32 0.33 93 1047.2
20200328152348 47 18 7.0 9.0 0.11 0.32 0.32 93 1017.0
20200328152330 47 18 3.0 9.0 0.11 0.32 0.32 93 1047.0
20200328152230 47 28 4.0 9.0 0.11 0.32 0.32 93 1046.9
20200328152201 47 31 4.0 9.0 0.11 0.32 0.32 93 1046.9
20200328152128 47 75 4.0 9.0 0.11 0.32 0.32 93 1046.7
20200328152029 47 16 4.0 9.0 0.11 0.32 0.32 93 1046.7
20200328151930 47 77 5.0 9.0 0.11 0.32 0.32 93 1046.7
20200328151848 47 82 3.0 9.0 0.11 0.32 0.32 93 1016.8
20200328151829 47 82 5.0 9.0 0.11 0.32 0.32 93 1046.8
20200328151726 47 96 4.0 9.0 0.11 0.32 0.32 93 1046.6
20200328151700 47 96 4.0 9.0 0.11 0.32 0.32 93 1046.6
20200328151627 47 115 4.0 9.0 0.10 0.31 0.32 93 1046.6
20200328151527 47 105 4.0 9.0 0.10 0.31 0.31 93 1046.5
20200328151427 47 132 4.0 9.0 0.10 0.31 0.31 93 1046.4
20200328151348 47 82 4.0 9.0 0.10 0.31 0.31 93 1016.5
20200328151327 47 82 4.0 9.0 0.10 0.31 0.31 93 1046.5
20200328151226 47 78 3.0 9.0 0.10 0.31 0.31 93 1046.5
20200328151159 47 101 3.0 9.0 0.10 0.31 0.31 93 1046.5
20200328151125 47 64 3.0 9.0 0.09 0.30 0.31 93 1046.6
20200328151024 47 110 3.0 9.0 0.09 0.30 0.30 93 1046.7
20200328150924 47 86 2.0 9.0 0.09 0.30 0.30 93 1046.9
20200328150848 47 82 9.0 9.0 0.09 0.30 0.30 93 1017.1
20200328150824 47 82 2.0 7.0 0.09 0.30 0.30 93 1047.1
20200328150723 47 59 2.0 5.0 0.08 0.29 0.29 93 1047.2
20200328150659 47 118 2.0 6.0 0.08 0.29 0.29 93 1047.2
20200328150624 47 64 2.0 6.0 0.08 0.29 0.29 93 1047.2
20200328150524 47 80 2.0 6.0 0.08 0.29 0.29 93 1047.3
20200328150425 47 81 2.0 6.0 0.08 0.29 0.29 93 1047.5